Time,TemperatureF,DewpointF,PressureIn,WindDirection,WindDirectionDegrees,WindSpeedMPH,WindSpeedGustMPH,Humidity,HourlyPrecipIn,Conditions,Clouds,dailyrainin,SoftwareType,DateUTC
2013-07-09 00:00:00,79.9,70.1,30.01,WSW,250,0.0,10.0,72,0.00,,SKC,0.00,VWS V14.01,2013-07-09 04:00:00,
2013-07-09 00:01:00,79.9,70.1,30.01,WSW,250,0.0,10.0,72,0.00,,SKC,0.00,VWS V14.01,2013-07-09 04:01:00,
2013-07-09 00:02:00,79.9,70.1,30.01,WSW,245,0.0,10.0,72,0.00,,SKC,0.00,VWS V14.01,2013-07-09 04:02:00,
2013-07-09 00:07:00,79.9,70.1,30.01,SW,229,0.0,10.0,72,0.00,,SKC,0.00,VWS V14.01,2013-07-09 04:07:00,
2013-07-09 00:08:00,79.9,69.7,30.02,SW,234,2.0,7.0,71,0.00,,SKC,0.00,VWS V14.01,2013-07-09 04:08:00,
2013-07-09 00:12:00,79.9,69.7,30.02,West,262,2.0,7.0,71,0.00,,SKC,0.00,VWS V14.01,2013-07-09 04:12:00,
2013-07-09 00:17:00,79.9,69.7,30.02,SSE,161,0.0,7.0,71,0.00,,SKC,0.00,VWS V14.01,2013-07-09 04:17:00,
2013-07-09 00:22:00,79.9,69.7,30.02,SW,236,0.0,7.0,71,0.00,,SKC,0.00,VWS V14.01,2013-07-09 04:22:00,
2013-07-09 00:27:00,79.9,69.7,30.02,NW,323,0.0,7.0,71,0.00,,SKC,0.00,VWS V14.01,2013-07-09 04:27:00,
2013-07-09 00:32:00,79.8,69.6,30.02,SE,131,1.0,7.0,71,0.00,,SKC,0.00,VWS V14.01,2013-07-09 04:32:00,
2013-07-09 00:37:00,79.8,69.6,30.02,South,189,0.0,7.0,71,0.00,,SKC,0.00,VWS V14.01,2013-07-09 04:37:00,
2013-07-09 00:43:00,79.6,69.4,30.02,South,186,0.0,5.0,71,0.00,,SKC,0.00,VWS V14.01,2013-07-09 04:43:00,
2013-07-09 00:47:00,79.6,69.4,30.02,WSW,252,0.0,6.0,71,0.00,,SKC,0.00,VWS V14.01,2013-07-09 04:47:00,
2013-07-09 00:48:00,79.6,69.4,30.02,North,353,2.0,6.0,71,0.00,,SKC,0.00,VWS V14.01,2013-07-09 04:48:00,
2013-07-09 00:53:00,79.6,69.4,30.02,SE,129,0.0,6.0,71,0.00,,SKC,0.00,VWS V14.01,2013-07-09 04:53:00,
2013-07-09 00:56:00,79.4,69.6,30.02,SW,228,2.0,6.0,72,0.00,,SKC,0.00,VWS V14.01,2013-07-09 04:56:00,
2013-07-09 00:58:00,79.6,69.4,30.02,WSW,242,3.0,6.0,71,0.00,,SKC,0.00,VWS V14.01,2013-07-09 04:58:00,
2013-07-09 01:03:00,79.4,69.6,30.02,SSE,147,0.0,6.0,72,0.00,,SKC,0.00,VWS V14.01,2013-07-09 05:03:00,
2013-07-09 01:08:00,79.2,69.4,30.01,SW,231,0.0,6.0,72,0.00,,SKC,0.00,VWS V14.01,2013-07-09 05:08:00,
2013-07-09 01:13:00,79.0,69.2,30.01,SW,228,5.0,5.0,72,0.00,,SKC,0.00,VWS V14.01,2013-07-09 05:13:00,
2013-07-09 01:18:00,78.8,69.4,30.01,WNW,288,2.0,5.0,73,0.00,,SKC,0.00,VWS V14.01,2013-07-09 05:18:00,
2013-07-09 01:23:00,78.8,69.4,30.01,ESE,110,0.0,5.0,73,0.00,,SKC,0.00,VWS V14.01,2013-07-09 05:23:00,
2013-07-09 01:28:00,78.5,69.5,30.01,SW,216,0.0,6.0,74,0.00,,SKC,0.00,VWS V14.01,2013-07-09 05:28:00,
2013-07-09 01:29:00,78.6,69.2,30.01,SSW,204,1.0,6.0,73,0.00,,SKC,0.00,VWS V14.01,2013-07-09 05:29:00,
2013-07-09 01:34:00,78.5,69.1,30.01,SSE,167,1.0,6.0,73,0.00,,SKC,0.00,VWS V14.01,2013-07-09 05:34:00,
2013-07-09 01:39:00,78.5,69.5,30.01,SW,216,0.0,6.0,74,0.00,,SKC,0.00,VWS V14.01,2013-07-09 05:39:00,
2013-07-09 01:42:00,78.5,69.5,30.01,SW,214,1.0,4.0,74,0.00,,SKC,0.00,VWS V14.01,2013-07-09 05:42:00,
2013-07-09 01:43:00,78.5,69.5,30.01,WSW,248,1.0,4.0,74,0.00,,SKC,0.00,VWS V14.01,2013-07-09 05:43:00,
2013-07-09 01:44:00,78.5,69.5,30.01,NNE,30,0.0,4.0,74,0.00,,SKC,0.00,VWS V14.01,2013-07-09 05:44:00,
2013-07-09 01:48:00,78.5,69.1,30.00,WSW,240,3.0,7.0,73,0.00,,SKC,0.00,VWS V14.01,2013-07-09 05:48:00,
2013-07-09 01:49:00,78.3,69.3,30.01,SSW,200,0.0,4.0,74,0.00,,SKC,0.00,VWS V14.01,2013-07-09 05:49:00,
2013-07-09 01:50:00,78.6,69.2,30.00,SW,229,0.0,7.0,73,0.00,,SKC,0.00,VWS V14.01,2013-07-09 05:50:00,
2013-07-09 01:54:00,78.5,69.1,30.00,SW,228,0.0,5.0,73,0.00,,SKC,0.00,VWS V14.01,2013-07-09 05:54:00,
2013-07-09 01:55:00,78.6,69.2,30.00,South,180,0.0,7.0,73,0.00,,SKC,0.00,VWS V14.01,2013-07-09 05:55:00,
2013-07-09 01:59:00,78.5,69.1,30.00,SW,229,1.0,7.0,73,0.00,,SKC,0.00,VWS V14.01,2013-07-09 05:59:00,
2013-07-09 02:04:00,78.6,69.2,30.00,South,180,0.0,7.0,73,0.00,,SKC,0.00,VWS V14.01,2013-07-09 06:04:00,
2013-07-09 02:09:00,78.5,69.1,30.00,WSW,238,0.0,5.0,73,0.00,,SKC,0.00,VWS V14.01,2013-07-09 06:09:00,
2013-07-09 02:12:00,78.5,69.1,30.00,South,190,0.0,7.0,73,0.00,,SKC,0.00,VWS V14.01,2013-07-09 06:12:00,
2013-07-09 02:14:00,78.5,69.1,30.00,SSW,210,0.0,6.0,73,0.00,,SKC,0.00,VWS V14.01,2013-07-09 06:14:00,
2013-07-09 02:18:00,78.1,69.1,30.00,SW,217,0.0,7.0,74,0.00,,SKC,0.00,VWS V14.01,2013-07-09 06:18:00,
2013-07-09 02:19:00,78.5,69.1,30.00,SW,220,0.0,7.0,73,0.00,,SKC,0.00,VWS V14.01,2013-07-09 06:19:00,
2013-07-09 02:24:00,78.3,68.9,30.00,SW,235,1.0,7.0,73,0.00,,SKC,0.00,VWS V14.01,2013-07-09 06:24:00,
2013-07-09 02:25:00,78.1,69.1,30.00,SW,214,3.0,7.0,74,0.00,,SKC,0.00,VWS V14.01,2013-07-09 06:25:00,
2013-07-09 02:29:00,78.1,69.1,30.00,SW,226,0.0,7.0,74,0.00,,SKC,0.00,VWS V14.01,2013-07-09 06:29:00,
2013-07-09 02:35:00,78.1,69.1,30.00,SW,229,3.0,7.0,74,0.00,,SKC,0.00,VWS V14.01,2013-07-09 06:35:00,
2013-07-09 02:37:00,77.9,68.9,30.00,SW,224,0.0,9.0,74,0.00,,SKC,0.00,VWS V14.01,2013-07-09 06:37:00,
2013-07-09 02:38:00,77.9,68.9,30.00,SW,229,4.0,9.0,74,0.00,,SKC,0.00,VWS V14.01,2013-07-09 06:38:00,
2013-07-09 02:40:00,78.1,69.1,30.00,SW,219,0.0,3.0,74,0.00,,SKC,0.00,VWS V14.01,2013-07-09 06:40:00,
2013-07-09 02:45:00,77.9,68.9,30.00,SW,236,3.0,9.0,74,0.00,,SKC,0.00,VWS V14.01,2013-07-09 06:45:00,
2013-07-09 02:46:00,77.7,69.2,30.00,South,176,0.0,9.0,75,0.00,,SKC,0.00,VWS V14.01,2013-07-09 06:46:00,
2013-07-09 02:50:00,77.7,68.8,30.00,SSW,204,0.0,9.0,74,0.00,,SKC,0.00,VWS V14.01,2013-07-09 06:50:00,
2013-07-09 02:51:00,77.6,69.1,30.00,WSW,245,0.0,9.0,75,0.00,,SKC,0.00,VWS V14.01,2013-07-09 06:51:00,
2013-07-09 02:55:00,77.7,69.2,30.00,South,176,1.0,9.0,75,0.00,,SKC,0.00,VWS V14.01,2013-07-09 06:55:00,
2013-07-09 03:00:00,77.6,69.1,30.00,WSW,245,1.0,9.0,75,0.00,,SKC,0.00,VWS V14.01,2013-07-09 07:00:00,
2013-07-09 03:01:00,77.6,69.1,30.00,SW,217,1.0,4.0,75,0.00,,SKC,0.00,VWS V14.01,2013-07-09 07:01:00,
2013-07-09 03:03:00,77.6,69.1,30.00,SW,224,0.0,5.0,75,0.00,,SKC,0.00,VWS V14.01,2013-07-09 07:03:00,
2013-07-09 03:04:00,77.6,69.1,30.00,SSE,160,1.0,5.0,75,0.00,,SKC,0.00,VWS V14.01,2013-07-09 07:04:00,
2013-07-09 03:05:00,77.6,69.1,30.00,WSW,250,5.0,9.0,75,0.00,,SKC,0.00,VWS V14.01,2013-07-09 07:05:00,
2013-07-09 03:09:00,77.6,69.1,30.00,SW,217,0.0,5.0,75,0.00,,SKC,0.00,VWS V14.01,2013-07-09 07:09:00,
2013-07-09 03:10:00,77.7,69.2,30.00,WSW,242,0.0,5.0,75,0.00,,SKC,0.00,VWS V14.01,2013-07-09 07:10:00,
2013-07-09 03:11:00,77.6,69.1,30.00,SW,219,3.0,4.0,75,0.00,,SKC,0.00,VWS V14.01,2013-07-09 07:11:00,
2013-07-09 03:16:00,77.6,69.1,30.00,WSW,243,4.0,5.0,75,0.00,,SKC,0.00,VWS V14.01,2013-07-09 07:16:00,
2013-07-09 03:18:00,77.6,69.1,30.00,WSW,237,0.0,5.0,75,0.00,,SKC,0.00,VWS V14.01,2013-07-09 07:18:00,
2013-07-09 03:21:00,77.7,69.2,30.00,WSW,241,0.0,5.0,75,0.00,,SKC,0.00,VWS V14.01,2013-07-09 07:21:00,
2013-07-09 03:24:00,77.7,69.2,30.00,SW,231,0.0,5.0,75,0.00,,SKC,0.00,VWS V14.01,2013-07-09 07:24:00,
2013-07-09 03:26:00,77.6,69.1,30.00,SW,233,1.0,5.0,75,0.00,,SKC,0.00,VWS V14.01,2013-07-09 07:26:00,
2013-07-09 03:29:00,77.9,68.9,30.00,WSW,247,0.0,5.0,74,0.00,,SKC,0.00,VWS V14.01,2013-07-09 07:29:00,
2013-07-09 03:30:00,77.9,68.9,30.00,SW,231,5.0,5.0,74,0.00,,SKC,0.00,VWS V14.01,2013-07-09 07:30:00,
2013-07-09 03:31:00,77.7,69.2,30.00,WSW,253,0.0,5.0,75,0.00,,SKC,0.00,VWS V14.01,2013-07-09 07:31:00,
2013-07-09 03:36:00,77.9,68.9,30.00,WSW,243,0.0,5.0,74,0.00,,SKC,0.00,VWS V14.01,2013-07-09 07:36:00,
2013-07-09 03:41:00,78.1,69.1,30.00,SW,231,3.0,5.0,74,0.00,,SKC,0.00,VWS V14.01,2013-07-09 07:41:00,
2013-07-09 03:46:00,78.1,69.1,30.00,WSW,245,0.0,5.0,74,0.00,,SKC,0.00,VWS V14.01,2013-07-09 07:46:00,
2013-07-09 03:47:00,78.3,68.9,30.01,WSW,250,0.0,10.0,73,0.00,,SKC,0.00,VWS V14.01,2013-07-09 07:47:00,
2013-07-09 03:49:00,78.3,68.9,30.01,SW,220,4.0,11.0,73,0.00,,SKC,0.00,VWS V14.01,2013-07-09 07:49:00,
2013-07-09 03:52:00,78.5,69.1,30.00,South,176,0.0,10.0,73,0.00,,SKC,0.00,VWS V14.01,2013-07-09 07:52:00,
2013-07-09 03:54:00,78.5,69.1,30.01,WSW,240,0.0,11.0,73,0.00,,SKC,0.00,VWS V14.01,2013-07-09 07:54:00,
2013-07-09 03:58:00,78.3,68.9,30.01,SW,224,2.0,10.0,73,0.00,,SKC,0.00,VWS V14.01,2013-07-09 07:58:00,
2013-07-09 04:02:00,78.5,69.1,30.01,SSW,201,0.0,3.0,73,0.00,,SKC,0.00,VWS V14.01,2013-07-09 08:02:00,
2013-07-09 04:03:00,78.5,69.1,30.01,WSW,240,0.0,11.0,73,0.00,,SKC,0.00,VWS V14.01,2013-07-09 08:03:00,
2013-07-09 04:08:00,78.5,69.1,30.01,SSW,206,3.0,11.0,73,0.00,,SKC,0.00,VWS V14.01,2013-07-09 08:08:00,
2013-07-09 04:13:00,78.3,68.9,30.01,SW,220,1.0,5.0,73,0.00,,SKC,0.00,VWS V14.01,2013-07-09 08:13:00,
2013-07-09 04:17:00,78.5,69.1,30.01,South,173,0.0,6.0,73,0.00,,SKC,0.00,VWS V14.01,2013-07-09 08:17:00,
2013-07-09 04:18:00,78.5,69.1,30.01,South,174,0.0,5.0,73,0.00,,SKC,0.00,VWS V14.01,2013-07-09 08:18:00,
2013-07-09 04:23:00,78.5,69.1,30.01,WSW,245,0.0,6.0,73,0.00,,SKC,0.00,VWS V14.01,2013-07-09 08:23:00,
2013-07-09 04:25:00,78.5,69.5,30.01,WSW,246,0.0,6.0,74,0.00,,SKC,0.00,VWS V14.01,2013-07-09 08:25:00,
2013-07-09 04:28:00,78.5,69.1,30.01,WSW,252,1.0,6.0,73,0.00,,SKC,0.00,VWS V14.01,2013-07-09 08:28:00,
2013-07-09 04:33:00,78.5,69.5,30.01,WSW,248,0.0,6.0,74,0.00,,SKC,0.00,VWS V14.01,2013-07-09 08:33:00,
2013-07-09 04:38:00,78.5,69.1,30.01,WSW,245,0.0,6.0,73,0.00,,SKC,0.00,VWS V14.01,2013-07-09 08:38:00,
2013-07-09 04:43:00,78.1,69.1,30.01,SW,218,0.0,5.0,74,0.00,,SKC,0.00,VWS V14.01,2013-07-09 08:43:00,
2013-07-09 04:46:00,77.7,69.2,30.01,SW,231,0.0,5.0,75,0.00,,SKC,0.00,VWS V14.01,2013-07-09 08:46:00,
2013-07-09 04:48:00,77.9,68.9,30.01,SW,225,0.0,5.0,74,0.00,,SKC,0.00,VWS V14.01,2013-07-09 08:48:00,
2013-07-09 04:52:00,77.6,69.1,30.01,SSW,210,0.0,5.0,75,0.00,,SKC,0.00,VWS V14.01,2013-07-09 08:52:00,
2013-07-09 04:53:00,77.7,69.2,30.01,SW,217,5.0,5.0,75,0.00,,SKC,0.00,VWS V14.01,2013-07-09 08:53:00,
2013-07-09 04:58:00,77.6,69.1,30.01,SW,232,1.0,5.0,75,0.00,,SKC,0.00,VWS V14.01,2013-07-09 08:58:00,
2013-07-09 05:01:00,77.2,69.1,30.00,SW,234,0.0,5.0,76,0.00,,SKC,0.00,VWS V14.01,2013-07-09 09:01:00,
2013-07-09 05:04:00,77.6,69.1,30.01,SW,217,0.0,7.0,75,0.00,,SKC,0.00,VWS V14.01,2013-07-09 09:04:00,
2013-07-09 05:08:00,77.2,69.1,30.00,WSW,245,2.0,7.0,76,0.00,,SKC,0.00,VWS V14.01,2013-07-09 09:08:00,
2013-07-09 05:09:00,77.4,69.2,30.00,SSW,202,1.0,7.0,76,0.00,,SKC,0.00,VWS V14.01,2013-07-09 09:09:00,
2013-07-09 05:14:00,77.2,69.1,30.00,SW,221,0.0,7.0,76,0.00,,SKC,0.00,VWS V14.01,2013-07-09 09:14:00,
2013-07-09 05:17:00,77.0,69.2,30.00,WSW,255,0.0,9.0,77,0.00,,SKC,0.00,VWS V14.01,2013-07-09 09:17:00,
2013-07-09 05:19:00,77.2,69.1,30.00,SW,234,5.0,7.0,76,0.00,,SKC,0.00,VWS V14.01,2013-07-09 09:19:00,
2013-07-09 05:24:00,77.2,69.1,30.00,SW,219,0.0,7.0,76,0.00,,SKC,0.00,VWS V14.01,2013-07-09 09:24:00,
2013-07-09 05:26:00,77.0,69.2,30.00,SW,229,3.0,9.0,77,0.00,,SKC,0.00,VWS V14.01,2013-07-09 09:26:00,
2013-07-09 05:29:00,77.0,69.2,30.00,SW,220,3.0,9.0,77,0.00,,SKC,0.00,VWS V14.01,2013-07-09 09:29:00,
2013-07-09 05:33:00,77.0,69.2,30.01,SW,235,2.0,7.0,77,0.00,,SKC,0.00,VWS V14.01,2013-07-09 09:33:00,
2013-07-09 05:34:00,77.0,69.2,30.00,SSW,211,0.0,9.0,77,0.00,,SKC,0.00,VWS V14.01,2013-07-09 09:34:00,
2013-07-09 05:39:00,77.0,69.2,30.01,WSW,257,7.0,7.0,77,0.00,,SKC,0.00,VWS V14.01,2013-07-09 09:39:00,
2013-07-09 05:41:00,77.0,69.2,30.01,WSW,253,4.0,7.0,77,0.00,,SKC,0.00,VWS V14.01,2013-07-09 09:41:00,
2013-07-09 05:42:00,77.0,69.2,30.01,SW,221,0.0,7.0,77,0.00,,SKC,0.00,VWS V14.01,2013-07-09 09:42:00,
2013-07-09 05:44:00,77.0,69.2,30.01,SW,223,0.0,7.0,77,0.00,,SKC,0.00,VWS V14.01,2013-07-09 09:44:00,
2013-07-09 05:49:00,77.0,69.2,30.01,WSW,248,0.0,7.0,77,0.00,,SKC,0.00,VWS V14.01,2013-07-09 09:49:00,
2013-07-09 05:54:00,77.0,69.2,30.01,WNW,287,6.0,7.0,77,0.00,,SKC,0.00,VWS V14.01,2013-07-09 09:54:00,
2013-07-09 05:56:00,77.0,69.2,30.01,SSW,195,0.0,7.0,77,0.00,,SKC,0.00,VWS V14.01,2013-07-09 09:56:00,
2013-07-09 05:57:00,77.0,69.2,30.01,SSW,211,0.0,7.0,77,0.00,,SKC,0.00,VWS V14.01,2013-07-09 09:57:00,
2013-07-09 05:59:00,77.0,69.2,30.01,SSW,210,0.0,7.0,77,0.00,,SKC,0.00,VWS V14.01,2013-07-09 09:59:00,
2013-07-09 06:00:00,77.0,69.2,30.01,West,260,0.0,7.0,77,0.00,,SKC,0.00,VWS V14.01,2013-07-09 10:00:00,
2013-07-09 06:04:00,77.0,69.6,30.01,SW,220,0.0,4.0,78,0.00,,SKC,0.00,VWS V14.01,2013-07-09 10:04:00,
2013-07-09 06:05:00,77.0,69.2,30.01,SSW,195,0.0,7.0,77,0.00,,SKC,0.00,VWS V14.01,2013-07-09 10:05:00,
2013-07-09 06:10:00,77.0,69.6,30.01,South,182,2.0,2.0,78,0.00,,SKC,0.00,VWS V14.01,2013-07-09 10:10:00,
2013-07-09 06:15:00,77.0,69.6,30.01,SSW,209,0.0,4.0,78,0.00,,SKC,0.00,VWS V14.01,2013-07-09 10:15:00,
2013-07-09 06:19:00,76.8,69.4,30.01,South,188,1.0,6.0,78,0.00,,SKC,0.00,VWS V14.01,2013-07-09 10:19:00,
2013-07-09 06:20:00,76.8,69.4,30.01,SW,221,0.0,6.0,78,0.00,,SKC,0.00,VWS V14.01,2013-07-09 10:20:00,
2013-07-09 06:25:00,76.8,69.4,30.01,SW,231,0.0,6.0,78,0.00,,SKC,0.00,VWS V14.01,2013-07-09 10:25:00,
2013-07-09 06:27:00,76.8,69.8,30.01,ESE,121,0.0,7.0,79,0.00,,SKC,0.00,VWS V14.01,2013-07-09 10:27:00,
2013-07-09 06:30:00,76.8,69.4,30.01,South,188,0.0,6.0,78,0.00,,SKC,0.00,VWS V14.01,2013-07-09 10:30:00,
2013-07-09 06:35:00,76.8,69.8,30.01,SW,229,0.0,6.0,79,0.00,,SKC,0.00,VWS V14.01,2013-07-09 10:35:00,
2013-07-09 06:36:00,76.7,69.7,30.01,SW,218,0.0,4.0,79,0.00,,SKC,0.00,VWS V14.01,2013-07-09 10:36:00,
2013-07-09 06:40:00,76.7,69.7,30.01,SW,225,0.0,3.0,79,0.00,,SKC,0.00,VWS V14.01,2013-07-09 10:40:00,
2013-07-09 06:43:00,76.7,69.7,30.01,WSW,250,4.0,4.0,79,0.00,,SKC,0.00,VWS V14.01,2013-07-09 10:43:00,
2013-07-09 06:46:00,76.7,69.7,30.01,SW,226,3.0,4.0,79,0.00,,SKC,0.00,VWS V14.01,2013-07-09 10:46:00,
2013-07-09 06:51:00,76.7,69.7,30.01,SW,224,1.0,4.0,79,0.00,,SKC,0.00,VWS V14.01,2013-07-09 10:51:00,
2013-07-09 06:56:00,76.7,69.7,30.01,WSW,257,2.0,6.0,79,0.00,,SKC,0.00,VWS V14.01,2013-07-09 10:56:00,
2013-07-09 06:58:00,76.8,69.4,30.01,NE,51,0.0,6.0,78,0.00,,SKC,0.00,VWS V14.01,2013-07-09 10:58:00,
2013-07-09 07:01:00,76.8,69.4,30.01,NE,53,0.0,6.0,78,0.00,,SKC,0.00,VWS V14.01,2013-07-09 11:01:00,
2013-07-09 07:05:00,76.8,69.4,30.00,SSW,200,2.0,4.0,78,0.00,,SKC,0.00,VWS V14.01,2013-07-09 11:05:00,
2013-07-09 07:06:00,76.8,69.4,30.01,NE,51,0.0,6.0,78,0.00,,SKC,0.00,VWS V14.01,2013-07-09 11:06:00,
2013-07-09 07:07:00,76.8,69.4,30.00,SSW,200,0.0,4.0,78,0.00,,SKC,0.00,VWS V14.01,2013-07-09 11:07:00,
2013-07-09 07:08:00,76.8,69.4,30.00,South,189,1.0,5.0,78,0.00,,SKC,0.00,VWS V14.01,2013-07-09 11:08:00,
2013-07-09 07:11:00,76.8,69.4,30.00,South,184,0.0,3.0,78,0.00,,SKC,0.00,VWS V14.01,2013-07-09 11:11:00,
2013-07-09 07:14:00,76.8,69.4,30.00,SSW,210,0.0,5.0,78,0.00,,SKC,0.00,VWS V14.01,2013-07-09 11:14:00,
2013-07-09 07:15:00,76.8,69.4,30.00,SSW,209,2.0,5.0,78,0.00,,SKC,0.00,VWS V14.01,2013-07-09 11:15:00,
2013-07-09 07:16:00,76.8,69.4,30.00,SSW,200,0.0,4.0,78,0.00,,SKC,0.00,VWS V14.01,2013-07-09 11:16:00,
2013-07-09 07:21:00,76.8,69.4,30.00,SSW,207,2.0,5.0,78,0.00,,SKC,0.00,VWS V14.01,2013-07-09 11:21:00,
2013-07-09 07:22:00,76.8,69.4,30.00,SW,223,4.0,5.0,78,0.00,,SKC,0.00,VWS V14.01,2013-07-09 11:22:00,
2013-07-09 07:27:00,76.8,69.4,30.00,WSW,255,3.0,5.0,78,0.00,,SKC,0.00,VWS V14.01,2013-07-09 11:27:00,
2013-07-09 07:29:00,77.0,70.0,30.00,SSW,193,0.0,5.0,79,0.00,,SKC,0.00,VWS V14.01,2013-07-09 11:29:00,
2013-07-09 07:30:00,77.0,70.0,30.00,South,176,3.0,3.0,79,0.00,,SKC,0.00,VWS V14.01,2013-07-09 11:30:00,
2013-07-09 07:31:00,77.0,70.0,30.00,South,174,0.0,3.0,79,0.00,,SKC,0.00,VWS V14.01,2013-07-09 11:31:00,
2013-07-09 07:32:00,76.8,69.4,30.00,SW,229,3.0,5.0,78,0.00,,SKC,0.00,VWS V14.01,2013-07-09 11:32:00,
2013-07-09 07:37:00,77.0,70.0,30.00,South,183,1.0,5.0,79,0.00,,SKC,0.00,VWS V14.01,2013-07-09 11:37:00,
2013-07-09 07:39:00,77.2,70.2,30.00,West,275,0.0,5.0,79,0.00,,SKC,0.00,VWS V14.01,2013-07-09 11:39:00,
2013-07-09 07:42:00,77.0,70.0,30.00,East,101,0.0,5.0,79,0.00,,SKC,0.00,VWS V14.01,2013-07-09 11:42:00,
2013-07-09 07:44:00,77.2,70.2,30.01,SSE,156,2.0,8.0,79,0.00,,SKC,0.00,VWS V14.01,2013-07-09 11:44:00,
2013-07-09 07:45:00,77.4,70.4,30.01,SW,221,2.0,8.0,79,0.00,,SKC,0.00,VWS V14.01,2013-07-09 11:45:00,
2013-07-09 07:46:00,77.4,70.4,30.01,SW,224,1.0,8.0,79,0.00,,SKC,0.00,VWS V14.01,2013-07-09 11:46:00,
2013-07-09 07:47:00,77.2,70.2,30.00,SW,225,1.0,5.0,79,0.00,,SKC,0.00,VWS V14.01,2013-07-09 11:47:00,
2013-07-09 07:52:00,77.2,70.2,30.00,WSW,242,3.0,8.0,79,0.00,,SKC,0.00,VWS V14.01,2013-07-09 11:52:00,
2013-07-09 07:53:00,77.6,70.6,30.01,SW,229,0.0,8.0,79,0.00,,SKC,0.00,VWS V14.01,2013-07-09 11:53:00,
2013-07-09 07:55:00,77.6,70.6,30.01,SW,219,0.0,8.0,79,0.00,,SKC,0.00,VWS V14.01,2013-07-09 11:55:00,
2013-07-09 07:57:00,77.4,70.4,30.01,SW,218,2.0,8.0,79,0.00,,SKC,0.00,VWS V14.01,2013-07-09 11:57:00,
2013-07-09 08:01:00,77.9,70.9,30.01,South,172,0.0,1.0,79,0.00,,SKC,0.00,VWS V14.01,2013-07-09 12:01:00,
2013-07-09 08:02:00,77.6,70.6,30.01,SW,229,0.0,8.0,79,0.00,,SKC,0.00,VWS V14.01,2013-07-09 12:02:00,
2013-07-09 08:07:00,77.7,70.7,30.01,SW,222,0.0,8.0,79,0.00,,SKC,0.00,VWS V14.01,2013-07-09 12:07:00,
2013-07-09 08:08:00,78.3,71.3,30.01,SW,224,0.0,4.0,79,0.00,,SKC,0.00,VWS V14.01,2013-07-09 12:08:00,
2013-07-09 08:10:00,78.3,71.3,30.01,SW,221,1.0,5.0,79,0.00,,SKC,0.00,VWS V14.01,2013-07-09 12:10:00,
2013-07-09 08:12:00,77.9,70.9,30.01,South,179,0.0,4.0,79,0.00,,SKC,0.00,VWS V14.01,2013-07-09 12:12:00,
2013-07-09 08:13:00,78.5,71.1,30.01,South,186,0.0,5.0,78,0.00,,SKC,0.00,VWS V14.01,2013-07-09 12:13:00,
2013-07-09 08:18:00,78.3,71.3,30.01,SW,224,0.0,4.0,79,0.00,,SKC,0.00,VWS V14.01,2013-07-09 12:18:00,
2013-07-09 08:19:00,78.8,71.0,30.01,SW,227,3.0,7.0,77,0.00,,SKC,0.00,VWS V14.01,2013-07-09 12:19:00,
2013-07-09 08:23:00,78.5,71.1,30.01,South,186,0.0,5.0,78,0.00,,SKC,0.00,VWS V14.01,2013-07-09 12:23:00,
2013-07-09 08:28:00,78.6,70.8,30.01,SSW,208,4.0,7.0,77,0.00,,SKC,0.00,VWS V14.01,2013-07-09 12:28:00,
2013-07-09 08:32:00,79.2,70.6,30.01,SW,223,1.0,6.0,75,0.00,,SKC,0.00,VWS V14.01,2013-07-09 12:32:00,
2013-07-09 08:33:00,78.8,70.6,30.01,SSW,198,3.0,10.0,76,0.00,,SKC,0.00,VWS V14.01,2013-07-09 12:33:00,
2013-07-09 08:34:00,79.2,70.6,30.01,SW,214,0.0,6.0,75,0.00,,SKC,0.00,VWS V14.01,2013-07-09 12:34:00,
2013-07-09 08:38:00,79.0,70.4,30.01,SW,217,0.0,10.0,75,0.00,,SKC,0.00,VWS V14.01,2013-07-09 12:38:00,
2013-07-09 08:39:00,79.4,70.8,30.01,East,97,2.0,6.0,75,0.00,,SKC,0.00,VWS V14.01,2013-07-09 12:39:00,
2013-07-09 08:40:00,79.4,70.8,30.01,NE,38,0.0,6.0,75,0.00,,SKC,0.00,VWS V14.01,2013-07-09 12:40:00,
2013-07-09 08:42:00,79.4,70.4,30.01,WNW,285,0.0,6.0,74,0.00,,SKC,0.00,VWS V14.01,2013-07-09 12:42:00,
2013-07-09 08:43:00,79.2,70.6,30.01,SW,214,0.0,6.0,75,0.00,,SKC,0.00,VWS V14.01,2013-07-09 12:43:00,
2013-07-09 08:48:00,79.4,70.8,30.01,SSE,153,0.0,6.0,75,0.00,,SKC,0.00,VWS V14.01,2013-07-09 12:48:00,
2013-07-09 08:53:00,79.4,70.4,30.01,SW,223,0.0,6.0,74,0.00,,SKC,0.00,VWS V14.01,2013-07-09 12:53:00,
2013-07-09 08:55:00,79.8,70.8,30.01,ENE,75,2.0,8.0,74,0.00,,SKC,0.00,VWS V14.01,2013-07-09 12:55:00,
2013-07-09 08:58:00,79.6,70.6,30.01,WSW,251,8.0,8.0,74,0.00,,SKC,0.00,VWS V14.01,2013-07-09 12:58:00,
2013-07-09 09:02:00,79.9,70.5,30.01,NNE,27,0.0,6.0,73,0.00,,SKC,0.00,VWS V14.01,2013-07-09 13:02:00,
2013-07-09 09:03:00,79.8,70.8,30.01,ESE,105,0.0,8.0,74,0.00,,SKC,0.00,VWS V14.01,2013-07-09 13:03:00,
2013-07-09 09:08:00,79.8,70.4,30.01,WSW,252,2.0,8.0,73,0.00,,SKC,0.00,VWS V14.01,2013-07-09 13:08:00,
2013-07-09 09:09:00,80.5,70.7,30.01,SW,226,0.0,6.0,72,0.00,,SKC,0.00,VWS V14.01,2013-07-09 13:09:00,
2013-07-09 09:13:00,80.1,71.1,30.01,SW,226,5.0,6.0,74,0.00,,SKC,0.00,VWS V14.01,2013-07-09 13:13:00,
2013-07-09 09:19:00,80.5,70.7,30.01,WSW,243,1.0,6.0,72,0.00,,SKC,0.00,VWS V14.01,2013-07-09 13:19:00,
2013-07-09 09:21:00,80.5,70.7,30.02,SW,223,1.0,12.0,72,0.00,,SKC,0.00,VWS V14.01,2013-07-09 13:21:00,
2013-07-09 09:22:00,80.5,70.7,30.02,SW,223,0.0,12.0,72,0.00,,SKC,0.00,VWS V14.01,2013-07-09 13:22:00,
2013-07-09 09:24:00,80.7,70.8,30.02,SSW,201,5.0,12.0,72,0.00,,SKC,0.00,VWS V14.01,2013-07-09 13:24:00,
2013-07-09 09:26:00,80.1,70.3,30.02,SW,231,3.0,12.0,72,0.00,,SKC,0.00,VWS V14.01,2013-07-09 13:26:00,
2013-07-09 09:27:00,80.1,70.7,30.02,West,264,3.0,12.0,73,0.00,,SKC,0.00,VWS V14.01,2013-07-09 13:27:00,
2013-07-09 09:28:00,80.1,70.7,30.02,SW,225,0.0,12.0,73,0.00,,SKC,0.00,VWS V14.01,2013-07-09 13:28:00,
2013-07-09 09:29:00,80.5,70.2,30.02,SW,232,3.0,12.0,71,0.00,,SKC,0.00,VWS V14.01,2013-07-09 13:29:00,
2013-07-09 09:31:00,80.1,70.7,30.02,WSW,255,5.0,6.0,73,0.00,,SKC,0.00,VWS V14.01,2013-07-09 13:31:00,
2013-07-09 09:32:00,79.9,70.5,30.02,WSW,238,0.0,6.0,73,0.00,,SKC,0.00,VWS V14.01,2013-07-09 13:32:00,
2013-07-09 09:33:00,79.9,70.5,30.02,SW,231,0.0,6.0,73,0.00,,SKC,0.00,VWS V14.01,2013-07-09 13:33:00,
2013-07-09 09:34:00,80.3,71.3,30.02,SSW,213,2.0,12.0,74,0.00,,SKC,0.00,VWS V14.01,2013-07-09 13:34:00,
2013-07-09 09:38:00,79.8,70.4,30.02,SW,217,0.0,11.0,73,0.00,,SKC,0.00,VWS V14.01,2013-07-09 13:38:00,
2013-07-09 09:39:00,80.1,70.7,30.02,SSW,213,3.0,5.0,73,0.00,,SKC,0.00,VWS V14.01,2013-07-09 13:39:00,
2013-07-09 09:40:00,79.9,70.5,30.02,SW,231,0.0,11.0,73,0.00,,SKC,0.00,VWS V14.01,2013-07-09 13:40:00,
2013-07-09 09:44:00,79.9,70.5,30.02,SW,226,1.0,10.0,73,0.00,,SKC,0.00,VWS V14.01,2013-07-09 13:44:00,
2013-07-09 09:46:00,79.9,70.5,30.02,SSW,197,1.0,13.0,73,0.00,,SKC,0.00,VWS V14.01,2013-07-09 13:46:00,
2013-07-09 09:47:00,80.1,70.7,30.02,SSW,198,0.0,13.0,73,0.00,,SKC,0.00,VWS V14.01,2013-07-09 13:47:00,
2013-07-09 09:48:00,79.9,70.9,30.02,WSW,255,0.0,13.0,74,0.00,,SKC,0.00,VWS V14.01,2013-07-09 13:48:00,
2013-07-09 09:49:00,79.9,70.5,30.02,WSW,238,2.0,11.0,73,0.00,,SKC,0.00,VWS V14.01,2013-07-09 13:49:00,
2013-07-09 09:53:00,80.1,71.1,30.02,SW,219,5.0,13.0,74,0.00,,SKC,0.00,VWS V14.01,2013-07-09 13:53:00,
2013-07-09 09:54:00,79.8,70.4,30.02,South,191,0.0,13.0,73,0.00,,SKC,0.00,VWS V14.01,2013-07-09 13:54:00,
2013-07-09 09:59:00,79.9,70.9,30.02,West,266,0.0,13.0,74,0.00,,SKC,0.00,VWS V14.01,2013-07-09 13:59:00,
2013-07-09 10:01:00,79.8,70.8,30.02,South,177,0.0,4.0,74,0.00,,SKC,0.00,VWS V14.01,2013-07-09 14:01:00,
2013-07-09 10:04:00,79.9,70.5,30.02,WSW,243,0.0,13.0,73,0.00,,SKC,0.00,VWS V14.01,2013-07-09 14:04:00,
2013-07-09 10:07:00,79.6,71.0,30.02,South,187,3.0,6.0,75,0.00,,SKC,0.00,VWS V14.01,2013-07-09 14:07:00,
2013-07-09 10:09:00,79.8,70.4,30.02,East,101,1.0,4.0,73,0.00,,SKC,0.00,VWS V14.01,2013-07-09 14:09:00,
2013-07-09 10:11:00,79.6,71.0,30.02,SW,226,2.0,6.0,75,0.00,,SKC,0.00,VWS V14.01,2013-07-09 14:11:00,
2013-07-09 10:12:00,79.8,70.8,30.02,SW,223,1.0,6.0,74,0.00,,SKC,0.00,VWS V14.01,2013-07-09 14:12:00,
2013-07-09 10:14:00,79.8,70.8,30.02,SW,229,3.0,6.0,74,0.00,,SKC,0.00,VWS V14.01,2013-07-09 14:14:00,
2013-07-09 10:18:00,79.9,71.3,30.02,SW,214,0.0,10.0,75,0.00,,SKC,0.00,VWS V14.01,2013-07-09 14:18:00,
2013-07-09 10:19:00,79.6,70.6,30.02,WSW,254,1.0,6.0,74,0.00,,SKC,0.00,VWS V14.01,2013-07-09 14:19:00,
2013-07-09 10:20:00,79.8,71.2,30.02,West,272,4.0,11.0,75,0.00,,SKC,0.00,VWS V14.01,2013-07-09 14:20:00,
2013-07-09 10:24:00,79.8,70.8,30.02,SW,233,0.0,10.0,74,0.00,,SKC,0.00,VWS V14.01,2013-07-09 14:24:00,
2013-07-09 10:26:00,79.8,71.2,30.02,West,268,2.0,11.0,75,0.00,,SKC,0.00,VWS V14.01,2013-07-09 14:26:00,
2013-07-09 10:28:00,79.8,70.8,30.02,NNW,333,0.0,11.0,74,0.00,,SKC,0.00,VWS V14.01,2013-07-09 14:28:00,
2013-07-09 10:30:00,79.8,71.2,30.02,West,259,4.0,11.0,75,0.00,,SKC,0.00,VWS V14.01,2013-07-09 14:30:00,
2013-07-09 10:32:00,79.6,71.0,30.02,SW,234,6.0,7.0,75,0.00,,SKC,0.00,VWS V14.01,2013-07-09 14:32:00,
2013-07-09 10:34:00,79.6,71.0,30.02,SSW,211,4.0,9.0,75,0.00,,SKC,0.00,VWS V14.01,2013-07-09 14:34:00,
2013-07-09 10:35:00,79.8,70.8,30.02,West,268,0.0,11.0,74,0.00,,SKC,0.00,VWS V14.01,2013-07-09 14:35:00,
2013-07-09 10:39:00,79.6,71.0,30.02,WNW,290,0.0,9.0,75,0.00,,SKC,0.00,VWS V14.01,2013-07-09 14:39:00,
2013-07-09 10:40:00,79.8,71.2,30.02,SSW,203,5.0,7.0,75,0.00,,SKC,0.00,VWS V14.01,2013-07-09 14:40:00,
2013-07-09 10:41:00,79.8,71.6,30.02,WNW,290,0.0,9.0,76,0.00,,SKC,0.00,VWS V14.01,2013-07-09 14:41:00,
2013-07-09 10:42:00,79.6,71.0,30.02,SSW,193,4.0,9.0,75,0.00,,SKC,0.00,VWS V14.01,2013-07-09 14:42:00,
2013-07-09 10:45:00,79.6,70.6,30.02,SW,217,0.0,9.0,74,0.00,,SKC,0.00,VWS V14.01,2013-07-09 14:45:00,
2013-07-09 10:47:00,79.2,71.0,30.02,SW,223,4.0,9.0,76,0.00,,SKC,0.00,VWS V14.01,2013-07-09 14:47:00,
2013-07-09 10:49:00,79.2,71.0,30.02,SW,216,0.0,9.0,76,0.00,,SKC,0.00,VWS V14.01,2013-07-09 14:49:00,
2013-07-09 10:50:00,79.8,71.6,30.02,WNW,290,1.0,9.0,76,0.00,,SKC,0.00,VWS V14.01,2013-07-09 14:50:00,
2013-07-09 10:55:00,79.4,71.2,30.02,SSE,156,0.0,9.0,76,0.00,,SKC,0.00,VWS V14.01,2013-07-09 14:55:00,
2013-07-09 11:00:00,79.2,71.0,30.02,SW,231,1.0,9.0,76,0.00,,SKC,0.00,VWS V14.01,2013-07-09 15:00:00,
2013-07-09 11:03:00,79.0,71.9,30.02,SSW,207,2.0,6.0,79,0.00,,SKC,0.00,VWS V14.01,2013-07-09 15:03:00,
2013-07-09 11:05:00,79.0,71.9,30.02,SW,233,0.0,6.0,79,0.00,,SKC,0.00,VWS V14.01,2013-07-09 15:05:00,
2013-07-09 11:06:00,79.0,71.2,30.02,SW,216,0.0,9.0,77,0.00,,SKC,0.00,VWS V14.01,2013-07-09 15:06:00,
2013-07-09 11:09:00,79.2,71.8,30.02,West,266,6.0,6.0,78,0.00,,SKC,0.00,VWS V14.01,2013-07-09 15:09:00,
2013-07-09 11:10:00,79.2,71.8,30.02,SW,223,1.0,6.0,78,0.00,,SKC,0.00,VWS V14.01,2013-07-09 15:10:00,
2013-07-09 11:11:00,79.0,71.9,30.02,SW,230,4.0,4.0,79,0.00,,SKC,0.00,VWS V14.01,2013-07-09 15:11:00,
2013-07-09 11:16:00,79.0,71.9,30.02,WSW,244,3.0,6.0,79,0.00,,SKC,0.00,VWS V14.01,2013-07-09 15:16:00,
2013-07-09 11:21:00,79.2,71.4,30.02,West,270,0.0,6.0,77,0.00,,SKC,0.00,VWS V14.01,2013-07-09 15:21:00,
2013-07-09 11:22:00,79.4,71.9,30.02,South,171,0.0,6.0,78,0.00,,SKC,0.00,VWS V14.01,2013-07-09 15:22:00,
2013-07-09 11:26:00,79.4,71.6,30.02,West,261,5.0,6.0,77,0.00,,SKC,0.00,VWS V14.01,2013-07-09 15:26:00,
2013-07-09 11:29:00,79.4,71.6,30.01,WSW,237,0.0,6.0,77,0.00,,SKC,0.00,VWS V14.01,2013-07-09 15:29:00,
2013-07-09 11:31:00,79.4,71.9,30.02,South,171,0.0,6.0,78,0.00,,SKC,0.00,VWS V14.01,2013-07-09 15:31:00,
2013-07-09 11:36:00,79.2,71.4,30.02,SW,231,3.0,6.0,77,0.00,,SKC,0.00,VWS V14.01,2013-07-09 15:36:00,
2013-07-09 11:37:00,79.4,71.9,30.01,WNW,287,0.0,5.0,78,0.00,,SKC,0.00,VWS V14.01,2013-07-09 15:37:00,
2013-07-09 11:41:00,79.2,71.4,30.01,WSW,252,1.0,5.0,77,0.00,,SKC,0.00,VWS V14.01,2013-07-09 15:41:00,
2013-07-09 11:44:00,79.8,72.3,30.01,SW,232,0.0,5.0,78,0.00,,SKC,0.00,VWS V14.01,2013-07-09 15:44:00,
2013-07-09 11:45:00,79.8,72.3,30.01,SW,232,0.0,5.0,78,0.00,,SKC,0.00,VWS V14.01,2013-07-09 15:45:00,
2013-07-09 11:46:00,79.4,71.9,30.01,WNW,287,0.0,5.0,78,0.00,,SKC,0.00,VWS V14.01,2013-07-09 15:46:00,
2013-07-09 11:51:00,79.4,71.9,30.01,SW,232,2.0,5.0,78,0.00,,SKC,0.00,VWS V14.01,2013-07-09 15:51:00,
2013-07-09 11:52:00,80.3,72.4,30.01,SSW,195,0.0,5.0,77,0.00,,SKC,0.00,VWS V14.01,2013-07-09 15:52:00,
2013-07-09 11:56:00,79.8,72.3,30.01,SW,232,0.0,5.0,78,0.00,,SKC,0.00,VWS V14.01,2013-07-09 15:56:00,
2013-07-09 11:57:00,80.5,72.2,30.01,SSW,194,0.0,5.0,76,0.00,,SKC,0.00,VWS V14.01,2013-07-09 15:57:00,
2013-07-09 11:58:00,80.7,72.4,30.01,West,268,0.0,5.0,76,0.00,,SKC,0.00,VWS V14.01,2013-07-09 15:58:00,
2013-07-09 12:02:00,80.3,72.4,30.01,SSW,195,0.0,5.0,77,0.00,,SKC,0.00,VWS V14.01,2013-07-09 16:02:00,
2013-07-09 12:04:00,80.9,72.2,30.01,NNW,330,0.0,3.0,75,0.00,,SKC,0.00,VWS V14.01,2013-07-09 16:04:00,
2013-07-09 12:07:00,80.5,72.2,30.01,SSW,198,2.0,5.0,76,0.00,,SKC,0.00,VWS V14.01,2013-07-09 16:07:00,
2013-07-09 12:10:00,81.2,72.5,30.01,West,278,6.0,6.0,75,0.00,,SKC,0.00,VWS V14.01,2013-07-09 16:10:00,
2013-07-09 12:11:00,81.2,72.5,30.01,WSW,242,2.0,6.0,75,0.00,,SKC,0.00,VWS V14.01,2013-07-09 16:11:00,
2013-07-09 12:12:00,80.7,72.0,30.01,WSW,245,0.0,3.0,75,0.00,,SKC,0.00,VWS V14.01,2013-07-09 16:12:00,
2013-07-09 12:13:00,81.2,72.1,30.01,SSW,205,1.0,7.0,74,0.00,,SKC,0.00,VWS V14.01,2013-07-09 16:13:00,
2013-07-09 12:17:00,81.1,72.8,30.01,West,280,2.0,3.0,76,0.00,,SKC,0.00,VWS V14.01,2013-07-09 16:17:00,
2013-07-09 12:18:00,81.8,72.3,30.01,SW,236,2.0,7.0,73,0.00,,SKC,0.00,VWS V14.01,2013-07-09 16:18:00,
2013-07-09 12:20:00,82.0,72.1,30.01,WSW,239,0.0,7.0,72,0.00,,SKC,0.00,VWS V14.01,2013-07-09 16:20:00,
2013-07-09 12:22:00,81.2,72.5,30.01,SW,226,5.0,7.0,75,0.00,,SKC,0.00,VWS V14.01,2013-07-09 16:22:00,
2013-07-09 12:25:00,82.6,71.8,30.01,SW,234,6.0,10.0,70,0.00,,SKC,0.00,VWS V14.01,2013-07-09 16:25:00,
2013-07-09 12:26:00,82.6,71.8,30.01,SW,219,0.0,10.0,70,0.00,,SKC,0.00,VWS V14.01,2013-07-09 16:26:00,
2013-07-09 12:27:00,81.8,72.7,30.01,South,182,1.0,7.0,74,0.00,,SKC,0.00,VWS V14.01,2013-07-09 16:27:00,
2013-07-09 12:31:00,83.0,73.1,30.01,WSW,246,2.0,4.0,72,0.00,,SKC,0.00,VWS V14.01,2013-07-09 16:31:00,
2013-07-09 12:32:00,82.4,72.5,30.01,WNW,297,0.0,7.0,72,0.00,,SKC,0.00,VWS V14.01,2013-07-09 16:32:00,
2013-07-09 12:37:00,82.6,72.2,30.01,South,184,0.0,10.0,71,0.00,,SKC,0.00,VWS V14.01,2013-07-09 16:37:00,
2013-07-09 12:38:00,83.2,72.4,30.01,West,266,0.0,4.0,70,0.00,,SKC,0.00,VWS V14.01,2013-07-09 16:38:00,
2013-07-09 12:39:00,83.2,72.8,30.01,West,266,0.0,4.0,71,0.00,,SKC,0.00,VWS V14.01,2013-07-09 16:39:00,
2013-07-09 12:42:00,82.8,72.9,30.01,NW,316,0.0,4.0,72,0.00,,SKC,0.00,VWS V14.01,2013-07-09 16:42:00,
2013-07-09 12:43:00,83.2,72.4,30.01,SW,236,0.0,4.0,70,0.00,,SKC,0.00,VWS V14.01,2013-07-09 16:43:00,
2013-07-09 12:44:00,83.2,72.0,30.01,SW,226,4.0,5.0,69,0.00,,SKC,0.00,VWS V14.01,2013-07-09 16:44:00,
2013-07-09 12:45:00,83.2,72.0,30.01,WSW,245,0.0,5.0,69,0.00,,SKC,0.00,VWS V14.01,2013-07-09 16:45:00,
2013-07-09 12:47:00,83.0,72.2,30.01,West,266,1.0,4.0,70,0.00,,SKC,0.00,VWS V14.01,2013-07-09 16:47:00,
2013-07-09 12:50:00,83.2,72.8,30.01,SW,226,5.0,6.0,71,0.00,,SKC,0.00,VWS V14.01,2013-07-09 16:50:00,
2013-07-09 12:53:00,83.2,72.4,30.01,SW,234,4.0,4.0,70,0.00,,SKC,0.00,VWS V14.01,2013-07-09 16:53:00,
2013-07-09 12:56:00,83.4,72.6,30.01,WSW,252,2.0,6.0,70,0.00,,SKC,0.00,VWS V14.01,2013-07-09 16:56:00,
2013-07-09 12:57:00,83.2,73.2,30.01,SW,219,6.0,6.0,72,0.00,,SKC,0.00,VWS V14.01,2013-07-09 16:57:00,
2013-07-09 12:58:00,83.4,73.0,30.01,WSW,245,1.0,5.0,71,0.00,,SKC,0.00,VWS V14.01,2013-07-09 16:58:00,
2013-07-09 13:03:00,83.2,72.4,30.01,SW,230,4.0,6.0,70,0.00,,SKC,0.00,VWS V14.01,2013-07-09 17:03:00,
2013-07-09 13:04:00,82.8,72.9,30.01,SW,235,0.0,3.0,72,0.00,,SKC,0.00,VWS V14.01,2013-07-09 17:04:00,
2013-07-09 13:05:00,82.6,72.7,30.01,SSW,210,1.0,6.0,72,0.00,,SKC,0.00,VWS V14.01,2013-07-09 17:05:00,
2013-07-09 13:07:00,82.4,72.5,30.01,SW,216,0.0,8.0,72,0.00,,SKC,0.00,VWS V14.01,2013-07-09 17:07:00,
2013-07-09 13:08:00,83.2,72.8,30.01,West,276,1.0,6.0,71,0.00,,SKC,0.00,VWS V14.01,2013-07-09 17:08:00,
2013-07-09 13:10:00,82.2,71.9,30.01,SW,229,2.0,11.0,71,0.00,,SKC,0.00,VWS V14.01,2013-07-09 17:10:00,
2013-07-09 13:11:00,82.2,71.9,30.01,SW,227,0.0,11.0,71,0.00,,SKC,0.00,VWS V14.01,2013-07-09 17:11:00,
2013-07-09 13:12:00,82.2,72.3,30.01,WSW,250,2.0,11.0,72,0.00,,SKC,0.00,VWS V14.01,2013-07-09 17:12:00,
2013-07-09 13:13:00,82.8,72.9,30.01,SW,235,0.0,3.0,72,0.00,,SKC,0.00,VWS V14.01,2013-07-09 17:13:00,
2013-07-09 13:15:00,82.2,72.7,30.01,SW,229,0.0,11.0,73,0.00,,SKC,0.00,VWS V14.01,2013-07-09 17:15:00,
2013-07-09 13:18:00,82.4,72.5,30.01,WNW,298,0.0,11.0,72,0.00,,SKC,0.00,VWS V14.01,2013-07-09 17:18:00,
2013-07-09 13:19:00,82.0,72.5,30.01,NW,316,0.0,11.0,73,0.00,,SKC,0.00,VWS V14.01,2013-07-09 17:19:00,
2013-07-09 13:20:00,81.8,73.1,30.01,SE,126,1.0,11.0,75,0.00,,SKC,0.00,VWS V14.01,2013-07-09 17:20:00,
2013-07-09 13:21:00,81.8,73.5,30.01,SW,229,0.0,11.0,76,0.00,,SKC,0.00,VWS V14.01,2013-07-09 17:21:00,
2013-07-09 13:23:00,82.2,72.3,30.01,WSW,248,0.0,11.0,72,0.00,,SKC,0.00,VWS V14.01,2013-07-09 17:23:00,
2013-07-09 13:24:00,81.6,72.9,30.01,SW,219,3.0,11.0,75,0.00,,SKC,0.00,VWS V14.01,2013-07-09 17:24:00,
2013-07-09 13:25:00,81.4,72.7,30.01,SW,225,3.0,11.0,75,0.00,,SKC,0.00,VWS V14.01,2013-07-09 17:25:00,
2013-07-09 13:26:00,81.4,71.9,30.01,WNW,293,0.0,11.0,73,0.00,,SKC,0.00,VWS V14.01,2013-07-09 17:26:00,
2013-07-09 13:28:00,82.0,72.5,30.01,NW,316,0.0,11.0,73,0.00,,SKC,0.00,VWS V14.01,2013-07-09 17:28:00,
2013-07-09 13:31:00,81.6,72.9,30.00,SW,234,1.0,5.0,75,0.00,,SKC,0.00,VWS V14.01,2013-07-09 17:31:00,
2013-07-09 13:32:00,81.8,72.3,30.00,West,260,3.0,8.0,73,0.00,,SKC,0.00,VWS V14.01,2013-07-09 17:32:00,
2013-07-09 13:33:00,81.6,72.9,30.01,SW,219,3.0,11.0,75,0.00,,SKC,0.00,VWS V14.01,2013-07-09 17:33:00,
2013-07-09 13:34:00,82.0,72.5,30.00,SE,124,1.0,8.0,73,0.00,,SKC,0.00,VWS V14.01,2013-07-09 17:34:00,
2013-07-09 13:37:00,82.2,72.7,30.00,West,273,0.0,8.0,73,0.00,,SKC,0.00,VWS V14.01,2013-07-09 17:37:00,
2013-07-09 13:38:00,81.6,72.9,30.00,SW,236,1.0,11.0,75,0.00,,SKC,0.00,VWS V14.01,2013-07-09 17:38:00,
2013-07-09 13:39:00,82.6,72.7,30.00,SW,214,5.0,9.0,72,0.00,,SKC,0.00,VWS V14.01,2013-07-09 17:39:00,
2013-07-09 13:41:00,82.8,72.9,30.00,SSW,208,0.0,9.0,72,0.00,,SKC,0.00,VWS V14.01,2013-07-09 17:41:00,
2013-07-09 13:43:00,82.0,72.5,30.00,WSW,257,0.0,8.0,73,0.00,,SKC,0.00,VWS V14.01,2013-07-09 17:43:00,
2013-07-09 13:44:00,83.2,73.2,29.99,West,271,0.0,9.0,72,0.00,,SKC,0.00,VWS V14.01,2013-07-09 17:44:00,
2013-07-09 13:45:00,83.4,73.4,29.99,SE,138,0.0,9.0,72,0.00,,SKC,0.00,VWS V14.01,2013-07-09 17:45:00,
2013-07-09 13:46:00,83.6,73.6,29.99,SE,146,0.0,9.0,72,0.00,,SKC,0.00,VWS V14.01,2013-07-09 17:46:00,
2013-07-09 13:47:00,83.6,73.6,29.99,SE,134,1.0,9.0,72,0.00,,SKC,0.00,VWS V14.01,2013-07-09 17:47:00,
2013-07-09 13:48:00,83.8,73.4,29.99,South,171,1.0,9.0,71,0.00,,SKC,0.00,VWS V14.01,2013-07-09 17:48:00,
2013-07-09 13:49:00,82.6,72.7,30.00,SW,215,2.0,9.0,72,0.00,,SKC,0.00,VWS V14.01,2013-07-09 17:49:00,
2013-07-09 13:52:00,84.1,73.7,29.99,SSW,210,0.0,9.0,71,0.00,,SKC,0.00,VWS V14.01,2013-07-09 17:52:00,
2013-07-09 13:54:00,83.2,73.2,29.99,West,271,0.0,9.0,72,0.00,,SKC,0.00,VWS V14.01,2013-07-09 17:54:00,
2013-07-09 13:57:00,84.3,73.0,29.99,WSW,248,0.0,9.0,69,0.00,,SKC,0.00,VWS V14.01,2013-07-09 17:57:00,
2013-07-09 13:58:00,84.5,74.1,29.99,WSW,248,0.0,9.0,71,0.00,,SKC,0.00,VWS V14.01,2013-07-09 17:58:00,
2013-07-09 13:59:00,84.0,74.0,29.99,SSW,212,2.0,9.0,72,0.00,,SKC,0.00,VWS V14.01,2013-07-09 17:59:00,
2013-07-09 14:00:00,84.9,73.6,29.99,West,272,0.0,4.0,69,0.00,,SKC,0.00,VWS V14.01,2013-07-09 18:00:00,
2013-07-09 14:02:00,85.1,74.6,29.99,West,266,1.0,4.0,71,0.00,,SKC,0.00,VWS V14.01,2013-07-09 18:02:00,
2013-07-09 14:03:00,85.1,73.8,29.99,SSW,199,1.0,5.0,69,0.00,,SKC,0.00,VWS V14.01,2013-07-09 18:03:00,
2013-07-09 14:04:00,84.3,73.0,29.99,WNW,290,0.0,9.0,69,0.00,,SKC,0.00,VWS V14.01,2013-07-09 18:04:00,
2013-07-09 14:09:00,84.7,74.7,29.99,East,84,3.0,9.0,72,0.00,,SKC,0.00,VWS V14.01,2013-07-09 18:09:00,
2013-07-09 14:10:00,85.1,72.9,29.99,East,91,3.0,8.0,67,0.00,,SKC,0.00,VWS V14.01,2013-07-09 18:10:00,
2013-07-09 14:11:00,84.9,72.7,29.99,SW,236,3.0,10.0,67,0.00,,SKC,0.00,VWS V14.01,2013-07-09 18:11:00,
2013-07-09 14:12:00,84.7,72.1,29.99,SE,130,3.0,10.0,66,0.00,,SKC,0.00,VWS V14.01,2013-07-09 18:12:00,
2013-07-09 14:13:00,84.7,73.0,29.99,West,266,3.0,10.0,68,0.00,,SKC,0.00,VWS V14.01,2013-07-09 18:13:00,
2013-07-09 14:14:00,85.3,74.8,29.99,SSW,199,0.0,5.0,71,0.00,,SKC,0.00,VWS V14.01,2013-07-09 18:14:00,
2013-07-09 14:17:00,84.7,73.0,29.98,WSW,238,3.0,10.0,68,0.00,,SKC,0.00,VWS V14.01,2013-07-09 18:17:00,
2013-07-09 14:18:00,84.7,72.5,29.98,SW,222,6.0,10.0,67,0.00,,SKC,0.00,VWS V14.01,2013-07-09 18:18:00,
2013-07-09 14:19:00,85.1,73.4,29.99,SE,146,0.0,8.0,68,0.00,,SKC,0.00,VWS V14.01,2013-07-09 18:19:00,
2013-07-09 14:23:00,84.5,72.8,29.98,WSW,246,0.0,10.0,68,0.00,,SKC,0.00,VWS V14.01,2013-07-09 18:23:00,
2013-07-09 14:24:00,84.7,73.0,29.98,SW,217,1.0,10.0,68,0.00,,SKC,0.00,VWS V14.01,2013-07-09 18:24:00,
2013-07-09 14:25:00,84.7,73.0,29.98,SE,141,0.0,10.0,68,0.00,,SKC,0.00,VWS V14.01,2013-07-09 18:25:00,
2013-07-09 14:27:00,85.5,73.3,29.98,SSW,193,1.0,10.0,67,0.00,,SKC,0.00,VWS V14.01,2013-07-09 18:27:00,
2013-07-09 14:29:00,84.7,72.1,29.98,SSW,210,2.0,10.0,66,0.00,,SKC,0.00,VWS V14.01,2013-07-09 18:29:00,
2013-07-09 14:32:00,86.5,73.3,29.98,SSE,148,0.0,4.0,65,0.00,,SKC,0.00,VWS V14.01,2013-07-09 18:32:00,
2013-07-09 14:33:00,86.5,73.3,29.98,SSE,148,0.0,4.0,65,0.00,,SKC,0.00,VWS V14.01,2013-07-09 18:33:00,
2013-07-09 14:34:00,84.7,73.0,29.98,SE,134,0.0,10.0,68,0.00,,SKC,0.00,VWS V14.01,2013-07-09 18:34:00,
2013-07-09 14:35:00,87.4,74.7,29.98,SE,125,1.0,4.0,66,0.00,,SKC,0.00,VWS V14.01,2013-07-09 18:35:00,
2013-07-09 14:38:00,87.6,73.9,29.98,WSW,243,4.0,6.0,64,0.00,,SKC,0.00,VWS V14.01,2013-07-09 18:38:00,
2013-07-09 14:39:00,85.9,73.2,29.98,NW,319,0.0,1.0,66,0.00,,SKC,0.00,VWS V14.01,2013-07-09 18:39:00,
2013-07-09 14:40:00,87.6,73.0,29.98,South,176,0.0,7.0,62,0.00,,SKC,0.00,VWS V14.01,2013-07-09 18:40:00,
2013-07-09 14:41:00,87.4,73.3,29.98,WSW,257,2.0,7.0,63,0.00,,SKC,0.00,VWS V14.01,2013-07-09 18:41:00,
2013-07-09 14:44:00,87.2,74.5,29.98,SE,125,0.0,4.0,66,0.00,,SKC,0.00,VWS V14.01,2013-07-09 18:44:00,
2013-07-09 14:45:00,87.0,73.8,29.97,South,186,0.0,7.0,65,0.00,,SKC,0.00,VWS V14.01,2013-07-09 18:45:00,
2013-07-09 14:46:00,87.0,73.8,29.97,South,191,1.0,7.0,65,0.00,,SKC,0.00,VWS V14.01,2013-07-09 18:46:00,
2013-07-09 14:49:00,87.6,73.0,29.98,South,180,1.0,7.0,62,0.00,,SKC,0.00,VWS V14.01,2013-07-09 18:49:00,
2013-07-09 14:50:00,87.0,73.8,29.97,SW,229,3.0,7.0,65,0.00,,SKC,0.00,VWS V14.01,2013-07-09 18:50:00,
2013-07-09 14:51:00,87.0,73.8,29.97,SW,218,0.0,7.0,65,0.00,,SKC,0.00,VWS V14.01,2013-07-09 18:51:00,
2013-07-09 14:52:00,86.7,73.5,29.97,West,278,3.0,7.0,65,0.00,,SKC,0.00,VWS V14.01,2013-07-09 18:52:00,
2013-07-09 14:54:00,87.0,73.8,29.97,South,186,0.0,7.0,65,0.00,,SKC,0.00,VWS V14.01,2013-07-09 18:54:00,
2013-07-09 14:56:00,86.3,73.6,29.97,WSW,239,5.0,7.0,66,0.00,,SKC,0.00,VWS V14.01,2013-07-09 18:56:00,
2013-07-09 14:59:00,87.0,73.8,29.97,SW,232,3.0,7.0,65,0.00,,SKC,0.00,VWS V14.01,2013-07-09 18:59:00,
2013-07-09 15:01:00,85.9,73.2,29.97,SW,229,3.0,3.0,66,0.00,,SKC,0.00,VWS V14.01,2013-07-09 19:01:00,
2013-07-09 15:02:00,85.9,72.8,29.97,SSW,198,2.0,4.0,65,0.00,,SKC,0.00,VWS V14.01,2013-07-09 19:02:00,
2013-07-09 15:04:00,86.3,73.2,29.97,WSW,241,0.0,7.0,65,0.00,,SKC,0.00,VWS V14.01,2013-07-09 19:04:00,
2013-07-09 15:07:00,85.7,73.5,29.97,SW,215,0.0,7.0,67,0.00,,SKC,0.00,VWS V14.01,2013-07-09 19:07:00,
2013-07-09 15:08:00,85.7,73.5,29.97,SW,233,2.0,7.0,67,0.00,,SKC,0.00,VWS V14.01,2013-07-09 19:08:00,
2013-07-09 15:09:00,85.7,73.9,29.97,SW,233,0.0,7.0,68,0.00,,SKC,0.00,VWS V14.01,2013-07-09 19:09:00,
2013-07-09 15:10:00,86.1,73.0,29.97,SSE,160,0.0,1.0,65,0.00,,SKC,0.00,VWS V14.01,2013-07-09 19:10:00,
2013-07-09 15:14:00,85.7,72.6,29.97,SW,219,0.0,7.0,65,0.00,,SKC,0.00,VWS V14.01,2013-07-09 19:14:00,
2013-07-09 15:15:00,85.9,72.8,29.96,WSW,247,3.0,9.0,65,0.00,,SKC,0.00,VWS V14.01,2013-07-09 19:15:00,
2013-07-09 15:18:00,85.7,72.6,29.96,WSW,245,2.0,9.0,65,0.00,,SKC,0.00,VWS V14.01,2013-07-09 19:18:00,
2013-07-09 15:19:00,85.7,73.0,29.96,SSW,194,0.0,9.0,66,0.00,,SKC,0.00,VWS V14.01,2013-07-09 19:19:00,
2013-07-09 15:20:00,85.9,74.6,29.97,SW,235,0.0,7.0,69,0.00,,SKC,0.00,VWS V14.01,2013-07-09 19:20:00,
2013-07-09 15:22:00,85.9,73.2,29.96,NW,314,3.0,9.0,66,0.00,,SKC,0.00,VWS V14.01,2013-07-09 19:22:00,
2013-07-09 15:25:00,85.9,72.8,29.96,WSW,244,1.0,9.0,65,0.00,,SKC,0.00,VWS V14.01,2013-07-09 19:25:00,
2013-07-09 15:26:00,86.3,73.6,29.96,West,266,2.0,9.0,66,0.00,,SKC,0.00,VWS V14.01,2013-07-09 19:26:00,
2013-07-09 15:27:00,86.5,73.8,29.96,West,259,0.0,9.0,66,0.00,,SKC,0.00,VWS V14.01,2013-07-09 19:27:00,
2013-07-09 15:28:00,86.5,73.8,29.96,ESE,107,3.0,9.0,66,0.00,,SKC,0.00,VWS V14.01,2013-07-09 19:28:00,
2013-07-09 15:30:00,85.9,73.7,29.96,SW,217,5.0,9.0,67,0.00,,SKC,0.00,VWS V14.01,2013-07-09 19:30:00,
2013-07-09 15:32:00,86.5,71.9,29.96,SW,216,0.0,11.0,62,0.00,,SKC,0.00,VWS V14.01,2013-07-09 19:32:00,
2013-07-09 15:33:00,86.5,71.9,29.96,SW,227,5.0,11.0,62,0.00,,SKC,0.00,VWS V14.01,2013-07-09 19:33:00,
2013-07-09 15:34:00,86.5,71.9,29.96,SE,141,2.0,12.0,62,0.00,,SKC,0.00,VWS V14.01,2013-07-09 19:34:00,
2013-07-09 15:35:00,86.3,74.5,29.96,South,176,9.0,9.0,68,0.00,,SKC,0.00,VWS V14.01,2013-07-09 19:35:00,
2013-07-09 15:38:00,86.3,71.8,29.96,WSW,241,1.0,12.0,62,0.00,,SKC,0.00,VWS V14.01,2013-07-09 19:38:00,
2013-07-09 15:39:00,86.3,71.8,29.96,SSW,202,5.0,12.0,62,0.00,,SKC,0.00,VWS V14.01,2013-07-09 19:39:00,
2013-07-09 15:40:00,86.5,72.4,29.96,SE,127,2.0,11.0,63,0.00,,SKC,0.00,VWS V14.01,2013-07-09 19:40:00,
2013-07-09 15:41:00,85.9,72.3,29.96,South,189,0.0,12.0,64,0.00,,SKC,0.00,VWS V14.01,2013-07-09 19:41:00,
2013-07-09 15:44:00,85.9,72.3,29.96,WNW,297,10.0,12.0,64,0.00,,SKC,0.00,VWS V14.01,2013-07-09 19:44:00,
2013-07-09 15:45:00,86.5,71.5,29.96,West,273,1.0,12.0,61,0.00,,SKC,0.00,VWS V14.01,2013-07-09 19:45:00,
2013-07-09 15:46:00,86.1,71.6,29.96,West,273,1.0,12.0,62,0.00,,SKC,0.00,VWS V14.01,2013-07-09 19:46:00,
2013-07-09 15:50:00,86.1,72.0,29.96,WNW,284,1.0,12.0,63,0.00,,SKC,0.00,VWS V14.01,2013-07-09 19:50:00,
2013-07-09 15:51:00,86.5,71.9,29.96,WSW,239,0.0,12.0,62,0.00,,SKC,0.00,VWS V14.01,2013-07-09 19:51:00,
2013-07-09 15:53:00,86.5,71.9,29.96,West,259,4.0,12.0,62,0.00,,SKC,0.00,VWS V14.01,2013-07-09 19:53:00,
2013-07-09 15:55:00,86.1,72.0,29.96,WSW,243,4.0,12.0,63,0.00,,SKC,0.00,VWS V14.01,2013-07-09 19:55:00,
2013-07-09 15:56:00,86.5,71.9,29.96,WSW,256,0.0,12.0,62,0.00,,SKC,0.00,VWS V14.01,2013-07-09 19:56:00,
2013-07-09 16:00:00,86.5,71.9,29.96,WSW,239,1.0,12.0,62,0.00,,SKC,0.00,VWS V14.01,2013-07-09 20:00:00,
2013-07-09 16:01:00,86.7,72.1,29.96,SSW,198,0.0,11.0,62,0.00,,SKC,0.00,VWS V14.01,2013-07-09 20:01:00,
2013-07-09 16:02:00,87.0,72.9,29.96,SSW,198,0.0,11.0,63,0.00,,SKC,0.00,VWS V14.01,2013-07-09 20:02:00,
2013-07-09 16:05:00,86.3,71.8,29.96,WNW,291,2.0,12.0,62,0.00,,SKC,0.00,VWS V14.01,2013-07-09 20:05:00,
2013-07-09 16:06:00,86.5,72.9,29.96,SW,232,3.0,11.0,64,0.00,,SKC,0.00,VWS V14.01,2013-07-09 20:06:00,
2013-07-09 16:07:00,86.7,72.6,29.96,WSW,257,0.0,11.0,63,0.00,,SKC,0.00,VWS V14.01,2013-07-09 20:07:00,
2013-07-09 16:08:00,86.7,73.1,29.96,West,265,0.0,11.0,64,0.00,,SKC,0.00,VWS V14.01,2013-07-09 20:08:00,
2013-07-09 16:09:00,86.7,72.6,29.96,WNW,293,0.0,11.0,63,0.00,,SKC,0.00,VWS V14.01,2013-07-09 20:09:00,
2013-07-09 16:10:00,86.7,72.1,29.96,SSW,198,0.0,11.0,62,0.00,,SKC,0.00,VWS V14.01,2013-07-09 20:10:00,
2013-07-09 16:12:00,87.0,72.9,29.96,SW,217,0.0,11.0,63,0.00,,SKC,0.00,VWS V14.01,2013-07-09 20:12:00,
2013-07-09 16:13:00,87.2,74.0,29.96,SW,219,3.0,11.0,65,0.00,,SKC,0.00,VWS V14.01,2013-07-09 20:13:00,
2013-07-09 16:14:00,87.2,74.0,29.95,NW,314,10.0,11.0,65,0.00,,SKC,0.00,VWS V14.01,2013-07-09 20:14:00,
2013-07-09 16:15:00,86.5,71.9,29.96,SSW,204,0.0,11.0,62,0.00,,SKC,0.00,VWS V14.01,2013-07-09 20:15:00,
2013-07-09 16:19:00,87.0,72.4,29.95,South,187,1.0,11.0,62,0.00,,SKC,0.00,VWS V14.01,2013-07-09 20:19:00,
2013-07-09 16:20:00,87.0,73.8,29.96,SW,236,3.0,11.0,65,0.00,,SKC,0.00,VWS V14.01,2013-07-09 20:20:00,
2013-07-09 16:21:00,87.0,72.9,29.95,East,96,0.0,11.0,63,0.00,,SKC,0.00,VWS V14.01,2013-07-09 20:21:00,
2013-07-09 16:24:00,87.0,72.9,29.95,West,264,0.0,11.0,63,0.00,,SKC,0.00,VWS V14.01,2013-07-09 20:24:00,
2013-07-09 16:25:00,87.2,73.6,29.95,WSW,250,4.0,11.0,64,0.00,,SKC,0.00,VWS V14.01,2013-07-09 20:25:00,
2013-07-09 16:29:00,87.0,72.4,29.95,SSW,205,2.0,12.0,62,0.00,,SKC,0.00,VWS V14.01,2013-07-09 20:29:00,
2013-07-09 16:30:00,87.0,72.9,29.95,East,96,0.0,11.0,63,0.00,,SKC,0.00,VWS V14.01,2013-07-09 20:30:00,
2013-07-09 16:31:00,87.2,73.1,29.95,WSW,243,0.0,7.0,63,0.00,,SKC,0.00,VWS V14.01,2013-07-09 20:31:00,
2013-07-09 16:32:00,87.4,73.7,29.95,WSW,243,0.0,7.0,64,0.00,,SKC,0.00,VWS V14.01,2013-07-09 20:32:00,
2013-07-09 16:34:00,87.4,73.7,29.95,WSW,238,2.0,7.0,64,0.00,,SKC,0.00,VWS V14.01,2013-07-09 20:34:00,
2013-07-09 16:35:00,87.0,73.4,29.95,WSW,239,2.0,11.0,64,0.00,,SKC,0.00,VWS V14.01,2013-07-09 20:35:00,
2013-07-09 16:36:00,87.4,73.3,29.95,SSW,213,11.0,11.0,63,0.00,,SKC,0.00,VWS V14.01,2013-07-09 20:36:00,
2013-07-09 16:38:00,87.2,72.6,29.95,NNW,327,4.0,15.0,62,0.00,,SKC,0.00,VWS V14.01,2013-07-09 20:38:00,
2013-07-09 16:39:00,87.0,72.4,29.95,WNW,294,4.0,15.0,62,0.00,,SKC,0.00,VWS V14.01,2013-07-09 20:39:00,
2013-07-09 16:40:00,87.2,73.1,29.95,WSW,243,2.0,7.0,63,0.00,,SKC,0.00,VWS V14.01,2013-07-09 20:40:00,
2013-07-09 16:41:00,86.7,72.1,29.95,SW,226,2.0,15.0,62,0.00,,SKC,0.00,VWS V14.01,2013-07-09 20:41:00,
2013-07-09 16:45:00,87.4,73.3,29.95,SW,225,3.0,7.0,63,0.00,,SKC,0.00,VWS V14.01,2013-07-09 20:45:00,
2013-07-09 16:46:00,86.5,71.9,29.95,SSW,193,1.0,15.0,62,0.00,,SKC,0.00,VWS V14.01,2013-07-09 20:46:00,
2013-07-09 16:47:00,86.7,72.1,29.95,SSE,148,5.0,15.0,62,0.00,,SKC,0.00,VWS V14.01,2013-07-09 20:47:00,
2013-07-09 16:48:00,87.0,72.4,29.95,West,266,6.0,16.0,62,0.00,,SKC,0.00,VWS V14.01,2013-07-09 20:48:00,
2013-07-09 16:50:00,86.7,72.1,29.95,SW,217,5.0,15.0,62,0.00,,SKC,0.00,VWS V14.01,2013-07-09 20:50:00,
2013-07-09 16:52:00,87.4,72.3,29.95,WSW,237,3.0,16.0,61,0.00,,SKC,0.00,VWS V14.01,2013-07-09 20:52:00,
2013-07-09 16:53:00,87.4,72.3,29.95,NNE,30,2.0,16.0,61,0.00,,SKC,0.00,VWS V14.01,2013-07-09 20:53:00,
2013-07-09 16:54:00,87.2,72.1,29.95,WSW,246,1.0,16.0,61,0.00,,SKC,0.00,VWS V14.01,2013-07-09 20:54:00,
2013-07-09 16:56:00,86.5,71.9,29.95,SSW,207,5.0,15.0,62,0.00,,SKC,0.00,VWS V14.01,2013-07-09 20:56:00,
2013-07-09 17:00:00,87.0,72.4,29.95,West,266,3.0,4.0,62,0.00,,SKC,0.00,VWS V14.01,2013-07-09 21:00:00,
2013-07-09 17:01:00,87.2,72.1,29.95,WSW,238,4.0,16.0,61,0.00,,SKC,0.00,VWS V14.01,2013-07-09 21:01:00,
2013-07-09 17:02:00,86.7,71.7,29.95,WSW,242,4.0,10.0,61,0.00,,SKC,0.00,VWS V14.01,2013-07-09 21:02:00,
2013-07-09 17:04:00,87.0,71.4,29.95,ESE,117,1.0,13.0,60,0.00,,SKC,0.00,VWS V14.01,2013-07-09 21:04:00,
2013-07-09 17:05:00,87.0,71.4,29.95,SW,236,0.0,13.0,60,0.00,,SKC,0.00,VWS V14.01,2013-07-09 21:05:00,
2013-07-09 17:06:00,87.2,72.6,29.95,SW,229,1.0,16.0,62,0.00,,SKC,0.00,VWS V14.01,2013-07-09 21:06:00,
2013-07-09 17:10:00,87.0,71.4,29.95,NW,320,0.0,13.0,60,0.00,,SKC,0.00,VWS V14.01,2013-07-09 21:10:00,
2013-07-09 17:11:00,86.7,71.7,29.95,East,93,0.0,10.0,61,0.00,,SKC,0.00,VWS V14.01,2013-07-09 21:11:00,
2013-07-09 17:15:00,87.2,71.6,29.95,SW,214,2.0,14.0,60,0.00,,SKC,0.00,VWS V14.01,2013-07-09 21:15:00,
2013-07-09 17:16:00,87.0,72.4,29.95,WSW,241,1.0,13.0,62,0.00,,SKC,0.00,VWS V14.01,2013-07-09 21:16:00,
2013-07-09 17:18:00,87.4,71.3,29.95,SSW,200,1.0,14.0,59,0.00,,SKC,0.00,VWS V14.01,2013-07-09 21:18:00,
2013-07-09 17:19:00,87.4,71.8,29.95,ESE,111,4.0,14.0,60,0.00,,SKC,0.00,VWS V14.01,2013-07-09 21:19:00,
2013-07-09 17:21:00,87.0,71.9,29.95,WSW,242,2.0,13.0,61,0.00,,SKC,0.00,VWS V14.01,2013-07-09 21:21:00,
2013-07-09 17:22:00,87.4,70.8,29.95,WSW,256,1.0,14.0,58,0.00,,SKC,0.00,VWS V14.01,2013-07-09 21:22:00,
2013-07-09 17:23:00,87.4,70.3,29.95,WSW,253,2.0,14.0,57,0.00,,SKC,0.00,VWS V14.01,2013-07-09 21:23:00,
2013-07-09 17:24:00,87.6,71.5,29.95,SSW,202,5.0,14.0,59,0.00,,SKC,0.00,VWS V14.01,2013-07-09 21:24:00,
2013-07-09 17:25:00,87.4,70.8,29.95,WSW,253,1.0,14.0,58,0.00,,SKC,0.00,VWS V14.01,2013-07-09 21:25:00,
2013-07-09 17:26:00,87.4,71.8,29.95,SW,222,5.0,14.0,60,0.00,,SKC,0.00,VWS V14.01,2013-07-09 21:26:00,
2013-07-09 17:28:00,87.4,70.8,29.95,West,274,0.0,14.0,58,0.00,,SKC,0.00,VWS V14.01,2013-07-09 21:28:00,
2013-07-09 17:29:00,87.4,71.3,29.95,WSW,246,3.0,14.0,59,0.00,,SKC,0.00,VWS V14.01,2013-07-09 21:29:00,
2013-07-09 17:30:00,87.4,71.3,29.95,NNW,332,1.0,2.0,59,0.00,,SKC,0.00,VWS V14.01,2013-07-09 21:30:00,
2013-07-09 17:31:00,87.4,70.8,29.95,SW,231,10.0,14.0,58,0.00,,SKC,0.00,VWS V14.01,2013-07-09 21:31:00,
2013-07-09 17:35:00,86.7,70.2,29.95,WSW,246,0.0,11.0,58,0.00,,SKC,0.00,VWS V14.01,2013-07-09 21:35:00,
2013-07-09 17:36:00,87.4,71.3,29.95,WSW,242,5.0,14.0,59,0.00,,SKC,0.00,VWS V14.01,2013-07-09 21:36:00,
2013-07-09 17:37:00,86.5,70.5,29.95,NW,309,7.0,11.0,59,0.00,,SKC,0.00,VWS V14.01,2013-07-09 21:37:00,
2013-07-09 17:38:00,86.7,70.7,29.95,SSW,195,3.0,11.0,59,0.00,,SKC,0.00,VWS V14.01,2013-07-09 21:38:00,
2013-07-09 17:40:00,87.0,70.9,29.95,SSW,200,2.0,11.0,59,0.00,,SKC,0.00,VWS V14.01,2013-07-09 21:40:00,
2013-07-09 17:41:00,87.2,70.6,29.95,WSW,254,2.0,10.0,58,0.00,,SKC,0.00,VWS V14.01,2013-07-09 21:41:00,
2013-07-09 17:42:00,87.0,71.4,29.95,SW,219,1.0,11.0,60,0.00,,SKC,0.00,VWS V14.01,2013-07-09 21:42:00,
2013-07-09 17:43:00,87.2,71.6,29.95,WSW,243,5.0,11.0,60,0.00,,SKC,0.00,VWS V14.01,2013-07-09 21:43:00,
2013-07-09 17:44:00,87.2,71.1,29.93,SW,235,1.0,11.0,59,0.00,,SKC,0.00,VWS V14.01,2013-07-09 21:44:00,
2013-07-09 17:46:00,87.2,72.1,29.93,SE,139,0.0,11.0,61,0.00,,SKC,0.00,VWS V14.01,2013-07-09 21:46:00,
2013-07-09 17:47:00,86.5,70.5,29.95,North,11,2.0,11.0,59,0.00,,SKC,0.00,VWS V14.01,2013-07-09 21:47:00,
2013-07-09 17:48:00,87.2,71.6,29.93,SW,233,0.0,11.0,60,0.00,,SKC,0.00,VWS V14.01,2013-07-09 21:48:00,
2013-07-09 17:49:00,87.2,72.1,29.93,SW,233,0.0,11.0,61,0.00,,SKC,0.00,VWS V14.01,2013-07-09 21:49:00,
2013-07-09 17:50:00,87.0,72.4,29.93,NNW,338,3.0,11.0,62,0.00,,SKC,0.00,VWS V14.01,2013-07-09 21:50:00,
2013-07-09 17:52:00,87.0,70.9,29.95,SW,221,2.0,11.0,59,0.00,,SKC,0.00,VWS V14.01,2013-07-09 21:52:00,
2013-07-09 17:55:00,86.5,71.5,29.93,SW,226,0.0,11.0,61,0.00,,SKC,0.00,VWS V14.01,2013-07-09 21:55:00,
2013-07-09 17:56:00,86.5,71.9,29.93,SW,226,4.0,11.0,62,0.00,,SKC,0.00,VWS V14.01,2013-07-09 21:56:00,
2013-07-09 17:57:00,87.2,71.6,29.93,SW,233,0.0,11.0,60,0.00,,SKC,0.00,VWS V14.01,2013-07-09 21:57:00,
2013-07-09 18:02:00,86.7,71.7,29.93,WSW,240,2.0,11.0,61,0.00,,SKC,0.00,VWS V14.01,2013-07-09 22:02:00,
2013-07-09 18:03:00,86.7,72.1,29.93,SW,229,0.0,3.0,62,0.00,,SKC,0.00,VWS V14.01,2013-07-09 22:03:00,
2013-07-09 18:04:00,87.0,72.9,29.93,SW,229,1.0,3.0,63,0.00,,SKC,0.00,VWS V14.01,2013-07-09 22:04:00,
2013-07-09 18:05:00,87.2,72.1,29.93,WSW,243,0.0,3.0,61,0.00,,SKC,0.00,VWS V14.01,2013-07-09 22:05:00,
2013-07-09 18:06:00,87.2,71.6,29.93,WSW,243,0.0,3.0,60,0.00,,SKC,0.00,VWS V14.01,2013-07-09 22:06:00,
2013-07-09 18:07:00,86.3,71.3,29.93,NW,310,0.0,11.0,61,0.00,,SKC,0.00,VWS V14.01,2013-07-09 22:07:00,
2013-07-09 18:09:00,87.8,73.2,29.93,WSW,255,0.0,6.0,62,0.00,,SKC,0.00,VWS V14.01,2013-07-09 22:09:00,
2013-07-09 18:12:00,86.7,72.1,29.93,SW,229,0.0,3.0,62,0.00,,SKC,0.00,VWS V14.01,2013-07-09 22:12:00,
2013-07-09 18:13:00,87.8,71.7,29.93,SSE,148,0.0,7.0,59,0.00,,SKC,0.00,VWS V14.01,2013-07-09 22:13:00,
2013-07-09 18:14:00,87.8,71.7,29.93,West,259,0.0,7.0,59,0.00,,SKC,0.00,VWS V14.01,2013-07-09 22:14:00,
2013-07-09 18:16:00,87.6,71.5,29.93,West,280,3.0,7.0,59,0.00,,SKC,0.00,VWS V14.01,2013-07-09 22:16:00,
2013-07-09 18:17:00,87.6,72.0,29.93,WSW,257,2.0,6.0,60,0.00,,SKC,0.00,VWS V14.01,2013-07-09 22:17:00,
2013-07-09 18:18:00,87.4,71.3,29.93,WSW,249,1.0,7.0,59,0.00,,SKC,0.00,VWS V14.01,2013-07-09 22:18:00,
2013-07-09 18:19:00,87.2,72.6,29.93,WSW,249,0.0,7.0,62,0.00,,SKC,0.00,VWS V14.01,2013-07-09 22:19:00,
2013-07-09 18:20:00,87.0,72.9,29.93,SW,222,0.0,7.0,63,0.00,,SKC,0.00,VWS V14.01,2013-07-09 22:20:00,
2013-07-09 18:21:00,86.7,71.7,29.93,SW,220,0.0,7.0,61,0.00,,SKC,0.00,VWS V14.01,2013-07-09 22:21:00,
2013-07-09 18:23:00,87.8,71.7,29.93,SSE,148,1.0,7.0,59,0.00,,SKC,0.00,VWS V14.01,2013-07-09 22:23:00,
2013-07-09 18:25:00,86.5,72.4,29.93,SW,217,0.0,7.0,63,0.00,,SKC,0.00,VWS V14.01,2013-07-09 22:25:00,
2013-07-09 18:26:00,86.5,72.9,29.93,SW,217,0.0,7.0,64,0.00,,SKC,0.00,VWS V14.01,2013-07-09 22:26:00,
2013-07-09 18:28:00,87.2,71.1,29.93,WSW,249,1.0,7.0,59,0.00,,SKC,0.00,VWS V14.01,2013-07-09 22:28:00,
2013-07-09 18:29:00,86.3,72.7,29.93,SSE,158,1.0,7.0,64,0.00,,SKC,0.00,VWS V14.01,2013-07-09 22:29:00,
2013-07-09 18:30:00,86.3,72.7,29.93,SSE,159,0.0,0.0,64,0.00,,SKC,0.00,VWS V14.01,2013-07-09 22:30:00,
2013-07-09 18:33:00,86.7,72.1,29.93,SW,231,0.0,7.0,62,0.00,,SKC,0.00,VWS V14.01,2013-07-09 22:33:00,
2013-07-09 18:34:00,86.1,73.0,29.93,SSW,202,0.0,1.0,65,0.00,,SKC,0.00,VWS V14.01,2013-07-09 22:34:00,
2013-07-09 18:35:00,86.1,72.5,29.93,WSW,243,0.0,3.0,64,0.00,,SKC,0.00,VWS V14.01,2013-07-09 22:35:00,
2013-07-09 18:36:00,86.1,72.5,29.93,WSW,243,0.0,3.0,64,0.00,,SKC,0.00,VWS V14.01,2013-07-09 22:36:00,
2013-07-09 18:38:00,86.3,72.2,29.93,SW,217,0.0,7.0,63,0.00,,SKC,0.00,VWS V14.01,2013-07-09 22:38:00,
2013-07-09 18:39:00,85.7,72.1,29.93,WSW,241,4.0,4.0,64,0.00,,SKC,0.00,VWS V14.01,2013-07-09 22:39:00,
2013-07-09 18:40:00,85.7,72.1,29.93,SW,230,0.0,4.0,64,0.00,,SKC,0.00,VWS V14.01,2013-07-09 22:40:00,
2013-07-09 18:41:00,85.7,72.1,29.93,South,173,4.0,4.0,64,0.00,,SKC,0.00,VWS V14.01,2013-07-09 22:41:00,
2013-07-09 18:43:00,86.3,72.7,29.93,SSW,202,0.0,1.0,64,0.00,,SKC,0.00,VWS V14.01,2013-07-09 22:43:00,
2013-07-09 18:44:00,85.7,72.6,29.92,SSW,193,0.0,5.0,65,0.00,,SKC,0.00,VWS V14.01,2013-07-09 22:44:00,
2013-07-09 18:46:00,85.7,72.6,29.92,SSW,193,0.0,5.0,65,0.00,,SKC,0.00,VWS V14.01,2013-07-09 22:46:00,
2013-07-09 18:47:00,85.7,72.6,29.92,SSW,193,0.0,5.0,65,0.00,,SKC,0.00,VWS V14.01,2013-07-09 22:47:00,
2013-07-09 18:48:00,85.9,72.8,29.93,SW,225,1.0,3.0,65,0.00,,SKC,0.00,VWS V14.01,2013-07-09 22:48:00,
2013-07-09 18:49:00,85.5,71.9,29.92,SSE,152,0.0,5.0,64,0.00,,SKC,0.00,VWS V14.01,2013-07-09 22:49:00,
2013-07-09 18:50:00,85.5,71.9,29.92,South,176,0.0,5.0,64,0.00,,SKC,0.00,VWS V14.01,2013-07-09 22:50:00,
2013-07-09 18:51:00,85.5,72.4,29.92,SSE,165,0.0,5.0,65,0.00,,SKC,0.00,VWS V14.01,2013-07-09 22:51:00,
2013-07-09 18:52:00,85.5,71.9,29.92,SSW,202,0.0,5.0,64,0.00,,SKC,0.00,VWS V14.01,2013-07-09 22:52:00,
2013-07-09 18:53:00,85.7,72.1,29.92,SSW,193,0.0,5.0,64,0.00,,SKC,0.00,VWS V14.01,2013-07-09 22:53:00,
2013-07-09 18:54:00,85.5,72.4,29.92,SSW,202,0.0,5.0,65,0.00,,SKC,0.00,VWS V14.01,2013-07-09 22:54:00,
2013-07-09 18:55:00,85.5,72.4,29.92,SSW,202,0.0,5.0,65,0.00,,SKC,0.00,VWS V14.01,2013-07-09 22:55:00,
2013-07-09 18:57:00,85.3,72.7,29.92,SSW,202,0.0,5.0,66,0.00,,SKC,0.00,VWS V14.01,2013-07-09 22:57:00,
2013-07-09 18:58:00,85.7,72.6,29.92,SSE,154,1.0,5.0,65,0.00,,SKC,0.00,VWS V14.01,2013-07-09 22:58:00,
2013-07-09 18:59:00,85.3,72.7,29.92,SE,129,0.0,5.0,66,0.00,,SKC,0.00,VWS V14.01,2013-07-09 22:59:00,
2013-07-09 19:00:00,85.1,72.0,29.92,WNW,289,2.0,3.0,65,0.00,,SKC,0.00,VWS V14.01,2013-07-09 23:00:00,
2013-07-09 19:01:00,85.1,72.0,29.92,SW,214,0.0,5.0,65,0.00,,SKC,0.00,VWS V14.01,2013-07-09 23:01:00,
2013-07-09 19:03:00,85.5,72.4,29.92,SSW,202,0.0,5.0,65,0.00,,SKC,0.00,VWS V14.01,2013-07-09 23:03:00,
2013-07-09 19:04:00,85.1,72.0,29.92,SW,221,0.0,5.0,65,0.00,,SKC,0.00,VWS V14.01,2013-07-09 23:04:00,
2013-07-09 19:05:00,85.1,72.5,29.92,SSW,205,3.0,6.0,66,0.00,,SKC,0.00,VWS V14.01,2013-07-09 23:05:00,
2013-07-09 19:06:00,84.9,71.8,29.92,SW,228,2.0,6.0,65,0.00,,SKC,0.00,VWS V14.01,2013-07-09 23:06:00,
2013-07-09 19:08:00,85.3,72.7,29.92,SE,129,1.0,5.0,66,0.00,,SKC,0.00,VWS V14.01,2013-07-09 23:08:00,
2013-07-09 19:09:00,84.9,71.8,29.92,South,182,0.0,6.0,65,0.00,,SKC,0.00,VWS V14.01,2013-07-09 23:09:00,
2013-07-09 19:10:00,84.9,71.8,29.92,SW,223,0.0,6.0,65,0.00,,SKC,0.00,VWS V14.01,2013-07-09 23:10:00,
2013-07-09 19:11:00,84.9,71.8,29.92,SSW,203,1.0,6.0,65,0.00,,SKC,0.00,VWS V14.01,2013-07-09 23:11:00,
2013-07-09 19:12:00,84.9,71.8,29.92,SE,139,4.0,6.0,65,0.00,,SKC,0.00,VWS V14.01,2013-07-09 23:12:00,
2013-07-09 19:13:00,85.1,72.0,29.92,South,190,2.0,5.0,65,0.00,,SKC,0.00,VWS V14.01,2013-07-09 23:13:00,
2013-07-09 19:17:00,84.9,71.8,29.93,SW,219,0.0,6.0,65,0.00,,SKC,0.00,VWS V14.01,2013-07-09 23:17:00,
2013-07-09 19:18:00,84.9,71.8,29.92,South,182,0.0,6.0,65,0.00,,SKC,0.00,VWS V14.01,2013-07-09 23:18:00,
2013-07-09 19:19:00,84.9,71.8,29.93,SW,219,0.0,6.0,65,0.00,,SKC,0.00,VWS V14.01,2013-07-09 23:19:00,
2013-07-09 19:20:00,84.9,72.3,29.93,SW,215,0.0,6.0,66,0.00,,SKC,0.00,VWS V14.01,2013-07-09 23:20:00,
2013-07-09 19:22:00,84.9,71.8,29.93,South,176,0.0,6.0,65,0.00,,SKC,0.00,VWS V14.01,2013-07-09 23:22:00,
2013-07-09 19:23:00,84.9,71.8,29.93,WSW,243,0.0,6.0,65,0.00,,SKC,0.00,VWS V14.01,2013-07-09 23:23:00,
2013-07-09 19:24:00,84.9,71.8,29.93,ESE,113,1.0,6.0,65,0.00,,SKC,0.00,VWS V14.01,2013-07-09 23:24:00,
2013-07-09 19:25:00,84.9,71.8,29.93,South,188,0.0,6.0,65,0.00,,SKC,0.00,VWS V14.01,2013-07-09 23:25:00,
2013-07-09 19:27:00,84.9,71.8,29.93,SW,232,2.0,6.0,65,0.00,,SKC,0.00,VWS V14.01,2013-07-09 23:27:00,
2013-07-09 19:28:00,84.9,71.8,29.93,SW,219,0.0,6.0,65,0.00,,SKC,0.00,VWS V14.01,2013-07-09 23:28:00,
2013-07-09 19:29:00,84.7,72.1,29.93,SW,222,0.0,6.0,66,0.00,,SKC,0.00,VWS V14.01,2013-07-09 23:29:00,
2013-07-09 19:33:00,84.9,71.8,29.93,ESE,113,1.0,6.0,65,0.00,,SKC,0.00,VWS V14.01,2013-07-09 23:33:00,
2013-07-09 19:34:00,84.7,72.1,29.93,SSW,196,0.0,5.0,66,0.00,,SKC,0.00,VWS V14.01,2013-07-09 23:34:00,
2013-07-09 19:35:00,84.7,72.1,29.93,SSW,196,0.0,5.0,66,0.00,,SKC,0.00,VWS V14.01,2013-07-09 23:35:00,
2013-07-09 19:36:00,84.7,72.1,29.93,ESE,120,1.0,5.0,66,0.00,,SKC,0.00,VWS V14.01,2013-07-09 23:36:00,
2013-07-09 19:37:00,84.7,72.1,29.93,WSW,242,2.0,5.0,66,0.00,,SKC,0.00,VWS V14.01,2013-07-09 23:37:00,
2013-07-09 19:39:00,84.7,72.1,29.93,SE,134,1.0,6.0,66,0.00,,SKC,0.00,VWS V14.01,2013-07-09 23:39:00,
2013-07-09 19:40:00,84.5,71.9,29.93,SE,132,0.0,5.0,66,0.00,,SKC,0.00,VWS V14.01,2013-07-09 23:40:00,
2013-07-09 19:41:00,84.5,71.9,29.93,SE,132,1.0,5.0,66,0.00,,SKC,0.00,VWS V14.01,2013-07-09 23:41:00,
2013-07-09 19:42:00,84.5,71.9,29.93,SSE,165,1.0,5.0,66,0.00,,SKC,0.00,VWS V14.01,2013-07-09 23:42:00,
2013-07-09 19:43:00,84.5,71.9,29.93,SSE,160,0.0,5.0,66,0.00,,SKC,0.00,VWS V14.01,2013-07-09 23:43:00,
2013-07-09 19:44:00,84.7,72.1,29.93,SSW,196,0.0,5.0,66,0.00,,SKC,0.00,VWS V14.01,2013-07-09 23:44:00,
2013-07-09 19:45:00,84.3,72.2,29.92,SSE,159,0.0,5.0,67,0.00,,SKC,0.00,VWS V14.01,2013-07-09 23:45:00,
2013-07-09 19:48:00,84.3,72.2,29.92,SSW,201,0.0,5.0,67,0.00,,SKC,0.00,VWS V14.01,2013-07-09 23:48:00,
2013-07-09 19:49:00,84.5,71.9,29.93,WSW,241,0.0,5.0,66,0.00,,SKC,0.00,VWS V14.01,2013-07-09 23:49:00,
2013-07-09 19:50:00,84.3,72.2,29.92,SW,234,0.0,5.0,67,0.00,,SKC,0.00,VWS V14.01,2013-07-09 23:50:00,
2013-07-09 19:51:00,84.3,72.2,29.92,SW,219,0.0,5.0,67,0.00,,SKC,0.00,VWS V14.01,2013-07-09 23:51:00,
2013-07-09 19:52:00,84.3,72.2,29.92,SSW,193,0.0,5.0,67,0.00,,SKC,0.00,VWS V14.01,2013-07-09 23:52:00,
2013-07-09 19:54:00,84.5,72.3,29.92,SSE,159,1.0,5.0,67,0.00,,SKC,0.00,VWS V14.01,2013-07-09 23:54:00,
2013-07-09 19:56:00,84.3,72.2,29.92,South,169,1.0,5.0,67,0.00,,SKC,0.00,VWS V14.01,2013-07-09 23:56:00,
2013-07-09 19:57:00,84.3,72.2,29.92,SSE,168,0.0,5.0,67,0.00,,SKC,0.00,VWS V14.01,2013-07-09 23:57:00,
2013-07-09 19:58:00,84.3,72.2,29.92,SSE,168,0.0,5.0,67,0.00,,SKC,0.00,VWS V14.01,2013-07-09 23:58:00,
2013-07-09 19:59:00,84.3,72.2,29.92,SW,235,1.0,5.0,67,0.00,,SKC,0.00,VWS V14.01,2013-07-09 23:59:00,
2013-07-09 20:00:00,84.1,72.0,29.92,SW,229,0.0,4.0,67,0.00,,SKC,0.00,VWS V14.01,2013-07-10 00:00:00,
2013-07-09 20:03:00,84.3,72.6,29.92,SW,216,0.0,4.0,68,0.00,,SKC,0.00,VWS V14.01,2013-07-10 00:03:00,
2013-07-09 20:04:00,84.3,72.2,29.92,SSW,193,0.0,5.0,67,0.00,,SKC,0.00,VWS V14.01,2013-07-10 00:04:00,
2013-07-09 20:05:00,84.3,72.2,29.92,SW,221,0.0,4.0,67,0.00,,SKC,0.00,VWS V14.01,2013-07-10 00:05:00,
2013-07-09 20:08:00,84.1,72.4,29.92,SW,214,0.0,4.0,68,0.00,,SKC,0.00,VWS V14.01,2013-07-10 00:08:00,
2013-07-09 20:09:00,84.1,72.0,29.92,WSW,237,2.0,4.0,67,0.00,,SKC,0.00,VWS V14.01,2013-07-10 00:09:00,
2013-07-09 20:11:00,84.1,72.4,29.92,SSE,164,0.0,4.0,68,0.00,,SKC,0.00,VWS V14.01,2013-07-10 00:11:00,
2013-07-09 20:12:00,84.1,72.4,29.92,SSE,164,0.0,4.0,68,0.00,,SKC,0.00,VWS V14.01,2013-07-10 00:12:00,
2013-07-09 20:13:00,84.1,72.4,29.92,SSE,164,0.0,4.0,68,0.00,,SKC,0.00,VWS V14.01,2013-07-10 00:13:00,
2013-07-09 20:14:00,84.3,72.2,29.92,SW,221,0.0,4.0,67,0.00,,SKC,0.00,VWS V14.01,2013-07-10 00:14:00,
2013-07-09 20:17:00,84.1,72.4,29.92,SE,124,0.0,4.0,68,0.00,,SKC,0.00,VWS V14.01,2013-07-10 00:17:00,
2013-07-09 20:18:00,84.1,72.4,29.92,SE,124,0.0,4.0,68,0.00,,SKC,0.00,VWS V14.01,2013-07-10 00:18:00,
2013-07-09 20:19:00,84.1,72.8,29.92,SE,129,4.0,4.0,69,0.00,,SKC,0.00,VWS V14.01,2013-07-10 00:19:00,
2013-07-09 20:20:00,84.1,72.0,29.92,SSW,193,0.0,4.0,67,0.00,,SKC,0.00,VWS V14.01,2013-07-10 00:20:00,
2013-07-09 20:21:00,84.1,72.4,29.92,SE,129,0.0,4.0,68,0.00,,SKC,0.00,VWS V14.01,2013-07-10 00:21:00,
2013-07-09 20:22:00,84.1,72.4,29.92,SE,134,0.0,4.0,68,0.00,,SKC,0.00,VWS V14.01,2013-07-10 00:22:00,
2013-07-09 20:25:00,84.1,72.4,29.92,South,191,0.0,4.0,68,0.00,,SKC,0.00,VWS V14.01,2013-07-10 00:25:00,
2013-07-09 20:26:00,84.0,72.7,29.92,WSW,249,3.0,4.0,69,0.00,,SKC,0.00,VWS V14.01,2013-07-10 00:26:00,
2013-07-09 20:27:00,84.0,72.7,29.92,ENE,72,0.0,6.0,69,0.00,,SKC,0.00,VWS V14.01,2013-07-10 00:27:00,
2013-07-09 20:28:00,84.0,72.7,29.92,ESE,118,1.0,6.0,69,0.00,,SKC,0.00,VWS V14.01,2013-07-10 00:28:00,
2013-07-09 20:29:00,84.0,72.7,29.92,ESE,118,0.0,6.0,69,0.00,,SKC,0.00,VWS V14.01,2013-07-10 00:29:00,
2013-07-09 20:30:00,84.1,72.4,29.92,SE,129,0.0,4.0,68,0.00,,SKC,0.00,VWS V14.01,2013-07-10 00:30:00,
2013-07-09 20:33:00,84.0,72.7,29.92,SSE,162,0.0,3.0,69,0.00,,SKC,0.00,VWS V14.01,2013-07-10 00:33:00,
2013-07-09 20:34:00,84.0,72.7,29.92,SW,221,3.0,7.0,69,0.00,,SKC,0.00,VWS V14.01,2013-07-10 00:34:00,
2013-07-09 20:35:00,84.0,72.7,29.92,SE,124,2.0,4.0,69,0.00,,SKC,0.00,VWS V14.01,2013-07-10 00:35:00,
2013-07-09 20:36:00,84.0,73.2,29.92,SW,222,0.0,7.0,70,0.00,,SKC,0.00,VWS V14.01,2013-07-10 00:36:00,
2013-07-09 20:37:00,84.0,73.2,29.92,SW,229,7.0,7.0,70,0.00,,SKC,0.00,VWS V14.01,2013-07-10 00:37:00,
2013-07-09 20:40:00,84.0,72.7,29.92,SSE,153,3.0,3.0,69,0.00,,SKC,0.00,VWS V14.01,2013-07-10 00:40:00,
2013-07-09 20:41:00,83.8,72.6,29.92,ESE,122,1.0,10.0,69,0.00,,SKC,0.00,VWS V14.01,2013-07-10 00:41:00,
2013-07-09 20:42:00,83.8,72.6,29.92,WSW,250,0.0,10.0,69,0.00,,SKC,0.00,VWS V14.01,2013-07-10 00:42:00,
2013-07-09 20:43:00,83.8,72.6,29.92,South,170,0.0,10.0,69,0.00,,SKC,0.00,VWS V14.01,2013-07-10 00:43:00,
2013-07-09 20:44:00,83.8,72.6,29.92,South,172,0.0,10.0,69,0.00,,SKC,0.00,VWS V14.01,2013-07-10 00:44:00,
2013-07-09 20:45:00,84.0,73.2,29.92,SSW,203,1.0,7.0,70,0.00,,SKC,0.00,VWS V14.01,2013-07-10 00:45:00,
2013-07-09 20:46:00,83.8,72.1,29.92,SSE,148,4.0,10.0,68,0.00,,SKC,0.00,VWS V14.01,2013-07-10 00:46:00,
2013-07-09 20:47:00,83.6,71.1,29.92,West,259,1.0,10.0,66,0.00,,SKC,0.00,VWS V14.01,2013-07-10 00:47:00,
2013-07-09 20:48:00,83.6,70.6,29.92,SSE,150,0.0,10.0,65,0.00,,SKC,0.00,VWS V14.01,2013-07-10 00:48:00,
2013-07-09 20:49:00,83.6,70.6,29.92,South,175,2.0,10.0,65,0.00,,SKC,0.00,VWS V14.01,2013-07-10 00:49:00,
2013-07-09 20:50:00,83.8,73.0,29.92,SE,141,2.0,10.0,70,0.00,,SKC,0.00,VWS V14.01,2013-07-10 00:50:00,
2013-07-09 20:51:00,83.6,70.1,29.92,SW,216,0.0,10.0,64,0.00,,SKC,0.00,VWS V14.01,2013-07-10 00:51:00,
2013-07-09 20:52:00,83.6,70.1,29.92,WSW,238,4.0,10.0,64,0.00,,SKC,0.00,VWS V14.01,2013-07-10 00:52:00,
2013-07-09 20:53:00,83.6,69.7,29.92,WSW,244,1.0,10.0,63,0.00,,SKC,0.00,VWS V14.01,2013-07-10 00:53:00,
2013-07-09 20:54:00,83.6,69.7,29.92,SSW,195,0.0,10.0,63,0.00,,SKC,0.00,VWS V14.01,2013-07-10 00:54:00,
2013-07-09 20:55:00,83.8,72.1,29.92,South,179,1.0,10.0,68,0.00,,SKC,0.00,VWS V14.01,2013-07-10 00:55:00,
2013-07-09 20:56:00,83.6,69.7,29.92,SSW,207,5.0,10.0,63,0.00,,SKC,0.00,VWS V14.01,2013-07-10 00:56:00,
2013-07-09 20:59:00,83.4,69.9,29.92,NW,314,0.0,10.0,64,0.00,,SKC,0.00,VWS V14.01,2013-07-10 00:59:00,
2013-07-09 21:00:00,83.6,70.1,29.92,SW,216,2.0,10.0,64,0.00,,SKC,0.00,VWS V14.01,2013-07-10 01:00:00,
2013-07-09 21:01:00,83.4,69.5,29.92,SSE,166,0.0,6.0,63,0.00,,SKC,0.00,VWS V14.01,2013-07-10 01:01:00,
2013-07-09 21:02:00,83.2,69.3,29.92,SSW,208,0.0,6.0,63,0.00,,SKC,0.00,VWS V14.01,2013-07-10 01:02:00,
2013-07-09 21:03:00,83.2,69.3,29.92,SE,126,0.0,6.0,63,0.00,,SKC,0.00,VWS V14.01,2013-07-10 01:03:00,
2013-07-09 21:04:00,83.2,69.3,29.92,ESE,122,0.0,6.0,63,0.00,,SKC,0.00,VWS V14.01,2013-07-10 01:04:00,
2013-07-09 21:05:00,83.6,69.7,29.92,South,181,0.0,10.0,63,0.00,,SKC,0.00,VWS V14.01,2013-07-10 01:05:00,
2013-07-09 21:07:00,83.2,69.8,29.92,SSE,167,0.0,6.0,64,0.00,,SKC,0.00,VWS V14.01,2013-07-10 01:07:00,
2013-07-09 21:08:00,83.0,69.1,29.92,South,169,0.0,6.0,63,0.00,,SKC,0.00,VWS V14.01,2013-07-10 01:08:00,
2013-07-09 21:09:00,83.0,69.6,29.92,SSW,203,2.0,6.0,64,0.00,,SKC,0.00,VWS V14.01,2013-07-10 01:09:00,
2013-07-09 21:10:00,83.4,69.5,29.92,West,271,1.0,6.0,63,0.00,,SKC,0.00,VWS V14.01,2013-07-10 01:10:00,
2013-07-09 21:13:00,83.0,69.6,29.92,SSW,213,0.0,6.0,64,0.00,,SKC,0.00,VWS V14.01,2013-07-10 01:13:00,
2013-07-09 21:14:00,82.8,69.4,29.92,SSW,208,2.0,6.0,64,0.00,,SKC,0.00,VWS V14.01,2013-07-10 01:14:00,
2013-07-09 21:15:00,82.8,69.4,29.92,SSW,208,0.0,6.0,64,0.00,,SKC,0.00,VWS V14.01,2013-07-10 01:15:00,
2013-07-09 21:16:00,83.2,69.3,29.92,SW,234,0.0,6.0,63,0.00,,SKC,0.00,VWS V14.01,2013-07-10 01:16:00,
2013-07-09 21:17:00,82.8,69.4,29.92,SW,223,0.0,6.0,64,0.00,,SKC,0.00,VWS V14.01,2013-07-10 01:17:00,
2013-07-09 21:18:00,82.8,69.4,29.92,SW,223,0.0,6.0,64,0.00,,SKC,0.00,VWS V14.01,2013-07-10 01:18:00,
2013-07-09 21:20:00,83.0,69.6,29.92,SW,214,0.0,6.0,64,0.00,,SKC,0.00,VWS V14.01,2013-07-10 01:20:00,
2013-07-09 21:21:00,82.6,69.7,29.92,South,188,0.0,6.0,65,0.00,,SKC,0.00,VWS V14.01,2013-07-10 01:21:00,
2013-07-09 21:22:00,82.6,69.7,29.92,South,169,0.0,6.0,65,0.00,,SKC,0.00,VWS V14.01,2013-07-10 01:22:00,
2013-07-09 21:23:00,82.6,69.7,29.92,South,187,0.0,6.0,65,0.00,,SKC,0.00,VWS V14.01,2013-07-10 01:23:00,
2013-07-09 21:24:00,82.6,69.7,29.92,SE,132,0.0,7.0,65,0.00,,SKC,0.00,VWS V14.01,2013-07-10 01:24:00,
2013-07-09 21:26:00,82.8,69.4,29.92,SW,223,0.0,6.0,64,0.00,,SKC,0.00,VWS V14.01,2013-07-10 01:26:00,
2013-07-09 21:28:00,82.6,69.7,29.92,South,188,1.0,7.0,65,0.00,,SKC,0.00,VWS V14.01,2013-07-10 01:28:00,
2013-07-09 21:29:00,82.4,69.5,29.93,South,189,0.0,7.0,65,0.00,,SKC,0.00,VWS V14.01,2013-07-10 01:29:00,
2013-07-09 21:30:00,82.4,69.5,29.93,South,189,0.0,0.0,65,0.00,,SKC,0.00,VWS V14.01,2013-07-10 01:30:00,
2013-07-09 21:31:00,82.6,69.7,29.92,South,188,0.0,6.0,65,0.00,,SKC,0.00,VWS V14.01,2013-07-10 01:31:00,
2013-07-09 21:32:00,82.4,69.5,29.93,SE,128,2.0,4.0,65,0.00,,SKC,0.00,VWS V14.01,2013-07-10 01:32:00,
2013-07-09 21:35:00,82.2,69.7,29.93,SE,129,0.0,4.0,66,0.00,,SKC,0.00,VWS V14.01,2013-07-10 01:35:00,
2013-07-09 21:36:00,82.6,69.7,29.92,WSW,257,0.0,7.0,65,0.00,,SKC,0.00,VWS V14.01,2013-07-10 01:36:00,
2013-07-09 21:37:00,82.2,70.2,29.93,ESE,123,0.0,4.0,67,0.00,,SKC,0.00,VWS V14.01,2013-07-10 01:37:00,
2013-07-09 21:38:00,82.2,70.2,29.93,ESE,123,0.0,4.0,67,0.00,,SKC,0.00,VWS V14.01,2013-07-10 01:38:00,
2013-07-09 21:40:00,82.0,70.0,29.93,SSE,161,0.0,4.0,67,0.00,,SKC,0.00,VWS V14.01,2013-07-10 01:40:00,
2013-07-09 21:41:00,82.4,69.5,29.93,South,189,0.0,0.0,65,0.00,,SKC,0.00,VWS V14.01,2013-07-10 01:41:00,
2013-07-09 21:42:00,81.8,69.8,29.93,SSE,161,0.0,4.0,67,0.00,,SKC,0.00,VWS V14.01,2013-07-10 01:42:00,
2013-07-09 21:43:00,81.8,70.2,29.93,South,190,0.0,4.0,68,0.00,,SKC,0.00,VWS V14.01,2013-07-10 01:43:00,
2013-07-09 21:44:00,81.8,70.2,29.93,South,190,0.0,4.0,68,0.00,,SKC,0.00,VWS V14.01,2013-07-10 01:44:00,
2013-07-09 21:46:00,82.2,69.7,29.93,ESE,123,0.0,4.0,66,0.00,,SKC,0.00,VWS V14.01,2013-07-10 01:46:00,
2013-07-09 21:47:00,81.6,70.0,29.93,SE,128,2.0,4.0,68,0.00,,SKC,0.00,VWS V14.01,2013-07-10 01:47:00,
2013-07-09 21:48:00,81.6,70.0,29.93,SE,128,0.0,4.0,68,0.00,,SKC,0.00,VWS V14.01,2013-07-10 01:48:00,
2013-07-09 21:49:00,81.6,70.0,29.93,SE,135,0.0,4.0,68,0.00,,SKC,0.00,VWS V14.01,2013-07-10 01:49:00,
2013-07-09 21:50:00,81.6,70.0,29.93,SSW,199,1.0,4.0,68,0.00,,SKC,0.00,VWS V14.01,2013-07-10 01:50:00,
2013-07-09 21:51:00,82.0,70.0,29.93,SSE,161,0.0,4.0,67,0.00,,SKC,0.00,VWS V14.01,2013-07-10 01:51:00,
2013-07-09 21:52:00,81.6,70.0,29.93,SSE,160,2.0,4.0,68,0.00,,SKC,0.00,VWS V14.01,2013-07-10 01:52:00,
2013-07-09 21:53:00,81.6,70.0,29.93,SSE,160,0.0,4.0,68,0.00,,SKC,0.00,VWS V14.01,2013-07-10 01:53:00,
2013-07-09 21:54:00,81.4,70.3,29.93,SSE,160,0.0,4.0,69,0.00,,SKC,0.00,VWS V14.01,2013-07-10 01:54:00,
2013-07-09 21:55:00,81.4,70.3,29.93,SSE,160,0.0,4.0,69,0.00,,SKC,0.00,VWS V14.01,2013-07-10 01:55:00,
2013-07-09 21:56:00,81.6,70.0,29.93,SE,128,1.0,4.0,68,0.00,,SKC,0.00,VWS V14.01,2013-07-10 01:56:00,
2013-07-09 21:58:00,81.4,70.3,29.93,ESE,122,0.0,4.0,69,0.00,,SKC,0.00,VWS V14.01,2013-07-10 01:58:00,
2013-07-09 21:59:00,81.4,70.3,29.93,ESE,122,0.0,4.0,69,0.00,,SKC,0.00,VWS V14.01,2013-07-10 01:59:00,
2013-07-09 22:00:00,81.4,70.3,29.93,South,171,0.0,3.0,69,0.00,,SKC,0.00,VWS V14.01,2013-07-10 02:00:00,
2013-07-09 22:01:00,81.6,70.0,29.93,SSE,161,0.0,4.0,68,0.00,,SKC,0.00,VWS V14.01,2013-07-10 02:01:00,
2013-07-09 22:02:00,81.2,70.1,29.93,SE,140,3.0,4.0,69,0.00,,SKC,0.00,VWS V14.01,2013-07-10 02:02:00,
2013-07-09 22:03:00,81.2,70.1,29.93,South,189,1.0,4.0,69,0.00,,SKC,0.00,VWS V14.01,2013-07-10 02:03:00,
2013-07-09 22:06:00,81.2,70.1,29.93,SSW,193,0.0,4.0,69,0.00,,SKC,0.00,VWS V14.01,2013-07-10 02:06:00,
2013-07-09 22:07:00,81.4,70.3,29.93,SE,125,3.0,4.0,69,0.00,,SKC,0.00,VWS V14.01,2013-07-10 02:07:00,
2013-07-09 22:08:00,81.2,70.5,29.93,SE,127,0.0,5.0,70,0.00,,SKC,0.00,VWS V14.01,2013-07-10 02:08:00,
2013-07-09 22:09:00,81.2,70.5,29.93,SE,127,3.0,5.0,70,0.00,,SKC,0.00,VWS V14.01,2013-07-10 02:09:00,
2013-07-09 22:10:00,81.2,70.5,29.93,SSE,148,0.0,5.0,70,0.00,,SKC,0.00,VWS V14.01,2013-07-10 02:10:00,
2013-07-09 22:11:00,81.2,70.5,29.93,SSE,148,0.0,5.0,70,0.00,,SKC,0.00,VWS V14.01,2013-07-10 02:11:00,
2013-07-09 22:12:00,81.2,70.1,29.93,SE,143,3.0,4.0,69,0.00,,SKC,0.00,VWS V14.01,2013-07-10 02:12:00,
2013-07-09 22:13:00,81.2,70.9,29.93,SSE,148,0.0,5.0,71,0.00,,SKC,0.00,VWS V14.01,2013-07-10 02:13:00,
2013-07-09 22:14:00,81.1,70.8,29.93,SSE,160,0.0,5.0,71,0.00,,SKC,0.00,VWS V14.01,2013-07-10 02:14:00,
2013-07-09 22:15:00,81.1,70.8,29.93,SSE,160,1.0,5.0,71,0.00,,SKC,0.00,VWS V14.01,2013-07-10 02:15:00,
2013-07-09 22:16:00,81.1,70.8,29.93,SE,134,0.0,5.0,71,0.00,,SKC,0.00,VWS V14.01,2013-07-10 02:16:00,
2013-07-09 22:17:00,81.2,70.1,29.93,SE,127,2.0,5.0,69,0.00,,SKC,0.00,VWS V14.01,2013-07-10 02:17:00,
2013-07-09 22:20:00,81.1,71.2,29.93,SE,132,0.0,5.0,72,0.00,,SKC,0.00,VWS V14.01,2013-07-10 02:20:00,
2013-07-09 22:21:00,81.1,71.2,29.93,SE,132,0.0,5.0,72,0.00,,SKC,0.00,VWS V14.01,2013-07-10 02:21:00,
2013-07-09 22:22:00,81.2,70.5,29.93,SSE,148,0.0,5.0,70,0.00,,SKC,0.00,VWS V14.01,2013-07-10 02:22:00,
2013-07-09 22:23:00,81.1,71.2,29.93,ESE,120,2.0,5.0,72,0.00,,SKC,0.00,VWS V14.01,2013-07-10 02:23:00,
2013-07-09 22:25:00,81.1,71.2,29.93,ESE,118,0.0,5.0,72,0.00,,SKC,0.00,VWS V14.01,2013-07-10 02:25:00,
2013-07-09 22:26:00,81.1,71.2,29.93,ESE,118,0.0,5.0,72,0.00,,SKC,0.00,VWS V14.01,2013-07-10 02:26:00,
2013-07-09 22:27:00,81.1,70.8,29.93,East,99,0.0,5.0,71,0.00,,SKC,0.00,VWS V14.01,2013-07-10 02:27:00,
2013-07-09 22:30:00,81.1,71.2,29.93,SE,133,0.0,2.0,72,0.00,,SKC,0.00,VWS V14.01,2013-07-10 02:30:00,
2013-07-09 22:31:00,81.1,71.2,29.93,SE,137,0.0,2.0,72,0.00,,SKC,0.00,VWS V14.01,2013-07-10 02:31:00,
2013-07-09 22:32:00,81.1,71.2,29.93,SE,129,5.0,5.0,72,0.00,,SKC,0.00,VWS V14.01,2013-07-10 02:32:00,
2013-07-09 22:33:00,81.1,71.6,29.93,WSW,254,0.0,3.0,73,0.00,,SKC,0.00,VWS V14.01,2013-07-10 02:33:00,
2013-07-09 22:34:00,80.9,71.4,29.93,SSW,212,1.0,3.0,73,0.00,,SKC,0.00,VWS V14.01,2013-07-10 02:34:00,
2013-07-09 22:35:00,80.9,71.4,29.93,SE,130,0.0,3.0,73,0.00,,SKC,0.00,VWS V14.01,2013-07-10 02:35:00,
2013-07-09 22:36:00,81.1,71.6,29.93,SE,146,2.0,3.0,73,0.00,,SKC,0.00,VWS V14.01,2013-07-10 02:36:00,
2013-07-09 22:37:00,81.1,71.2,29.93,SW,217,1.0,5.0,72,0.00,,SKC,0.00,VWS V14.01,2013-07-10 02:37:00,
2013-07-09 22:38:00,81.1,71.6,29.93,South,176,0.0,3.0,73,0.00,,SKC,0.00,VWS V14.01,2013-07-10 02:38:00,
2013-07-09 22:39:00,81.1,71.6,29.93,South,176,1.0,3.0,73,0.00,,SKC,0.00,VWS V14.01,2013-07-10 02:39:00,
2013-07-09 22:40:00,81.1,71.6,29.93,WSW,252,0.0,3.0,73,0.00,,SKC,0.00,VWS V14.01,2013-07-10 02:40:00,
2013-07-09 22:41:00,81.1,71.6,29.93,SW,228,0.0,3.0,73,0.00,,SKC,0.00,VWS V14.01,2013-07-10 02:41:00,
2013-07-09 22:42:00,80.9,71.4,29.93,WSW,255,1.0,3.0,73,0.00,,SKC,0.00,VWS V14.01,2013-07-10 02:42:00,
2013-07-09 22:43:00,80.9,71.8,29.93,SE,127,2.0,3.0,74,0.00,,SKC,0.00,VWS V14.01,2013-07-10 02:43:00,
2013-07-09 22:45:00,80.9,71.8,29.93,SE,129,0.0,3.0,74,0.00,,SKC,0.00,VWS V14.01,2013-07-10 02:45:00,
2013-07-09 22:46:00,80.9,71.8,29.93,SE,129,0.0,3.0,74,0.00,,SKC,0.00,VWS V14.01,2013-07-10 02:46:00,
2013-07-09 22:47:00,81.1,71.6,29.93,South,176,0.0,3.0,73,0.00,,SKC,0.00,VWS V14.01,2013-07-10 02:47:00,
2013-07-09 22:48:00,80.9,72.2,29.93,South,178,1.0,4.0,75,0.00,,SKC,0.00,VWS V14.01,2013-07-10 02:48:00,
2013-07-09 22:49:00,80.9,72.2,29.93,South,178,0.0,4.0,75,0.00,,SKC,0.00,VWS V14.01,2013-07-10 02:49:00,
2013-07-09 22:50:00,80.9,72.2,29.93,South,172,0.0,4.0,75,0.00,,SKC,0.00,VWS V14.01,2013-07-10 02:50:00,
2013-07-09 22:51:00,80.9,72.2,29.93,SSE,157,1.0,4.0,75,0.00,,SKC,0.00,VWS V14.01,2013-07-10 02:51:00,
2013-07-09 22:52:00,80.9,71.8,29.93,SE,129,2.0,3.0,74,0.00,,SKC,0.00,VWS V14.01,2013-07-10 02:52:00,
2013-07-09 22:53:00,80.9,72.2,29.93,SE,136,1.0,4.0,75,0.00,,SKC,0.00,VWS V14.01,2013-07-10 02:53:00,
2013-07-09 22:54:00,80.9,72.2,29.93,East,98,0.0,4.0,75,0.00,,SKC,0.00,VWS V14.01,2013-07-10 02:54:00,
2013-07-09 22:55:00,80.9,72.2,29.93,SE,135,0.0,4.0,75,0.00,,SKC,0.00,VWS V14.01,2013-07-10 02:55:00,
2013-07-09 22:56:00,80.9,72.2,29.93,South,176,0.0,4.0,75,0.00,,SKC,0.00,VWS V14.01,2013-07-10 02:56:00,
2013-07-09 22:57:00,80.9,72.2,29.93,South,176,0.0,4.0,75,0.00,,SKC,0.00,VWS V14.01,2013-07-10 02:57:00,
2013-07-09 22:58:00,80.9,72.2,29.93,South,178,0.0,4.0,75,0.00,,SKC,0.00,VWS V14.01,2013-07-10 02:58:00,
2013-07-09 22:59:00,80.9,72.6,29.93,South,182,0.0,4.0,76,0.00,,SKC,0.00,VWS V14.01,2013-07-10 02:59:00,
2013-07-09 23:02:00,80.7,72.4,29.93,South,182,0.0,0.0,76,0.00,,SKC,0.00,VWS V14.01,2013-07-10 03:02:00,
2013-07-09 23:03:00,80.9,72.2,29.93,East,98,0.0,4.0,75,0.00,,SKC,0.00,VWS V14.01,2013-07-10 03:03:00,
2013-07-09 23:04:00,80.7,72.4,29.93,South,179,0.0,0.0,76,0.00,,SKC,0.00,VWS V14.01,2013-07-10 03:04:00,
2013-07-09 23:05:00,80.7,72.8,29.93,South,179,0.0,0.0,77,0.00,,SKC,0.00,VWS V14.01,2013-07-10 03:05:00,
2013-07-09 23:07:00,80.7,72.8,29.93,South,179,0.0,1.0,77,0.00,,SKC,0.00,VWS V14.01,2013-07-10 03:07:00,
2013-07-09 23:08:00,80.9,72.6,29.93,South,182,0.0,4.0,76,0.00,,SKC,0.00,VWS V14.01,2013-07-10 03:08:00,
2013-07-09 23:09:00,80.5,72.6,29.93,South,179,0.0,1.0,77,0.00,,SKC,0.00,VWS V14.01,2013-07-10 03:09:00,
2013-07-09 23:10:00,80.5,72.6,29.93,South,179,0.0,1.0,77,0.00,,SKC,0.00,VWS V14.01,2013-07-10 03:10:00,
2013-07-09 23:11:00,80.5,72.6,29.93,South,179,0.0,1.0,77,0.00,,SKC,0.00,VWS V14.01,2013-07-10 03:11:00,
2013-07-09 23:12:00,80.5,72.6,29.93,South,179,0.0,1.0,77,0.00,,SKC,0.00,VWS V14.01,2013-07-10 03:12:00,
2013-07-09 23:13:00,80.7,72.4,29.93,South,182,0.0,0.0,76,0.00,,SKC,0.00,VWS V14.01,2013-07-10 03:13:00,
2013-07-09 23:14:00,80.5,73.0,29.93,South,179,0.0,1.0,78,0.00,,SKC,0.00,VWS V14.01,2013-07-10 03:14:00,
2013-07-09 23:15:00,80.5,73.0,29.93,South,179,0.0,1.0,78,0.00,,SKC,0.00,VWS V14.01,2013-07-10 03:15:00,
2013-07-09 23:16:00,80.3,72.8,29.93,SSW,209,1.0,3.0,78,0.00,,SKC,0.00,VWS V14.01,2013-07-10 03:16:00,
2013-07-09 23:17:00,80.3,72.8,29.93,SSW,209,0.0,3.0,78,0.00,,SKC,0.00,VWS V14.01,2013-07-10 03:17:00,
2013-07-09 23:18:00,80.5,72.6,29.93,South,179,0.0,1.0,77,0.00,,SKC,0.00,VWS V14.01,2013-07-10 03:18:00,
2013-07-09 23:19:00,80.3,73.2,29.93,SSW,206,0.0,3.0,79,0.00,,SKC,0.00,VWS V14.01,2013-07-10 03:19:00,
2013-07-09 23:20:00,80.3,73.2,29.93,SSW,207,0.0,3.0,79,0.00,,SKC,0.00,VWS V14.01,2013-07-10 03:20:00,
2013-07-09 23:21:00,80.3,73.2,29.93,SSW,207,0.0,3.0,79,0.00,,SKC,0.00,VWS V14.01,2013-07-10 03:21:00,
2013-07-09 23:22:00,80.3,73.2,29.93,SSW,207,0.0,3.0,79,0.00,,SKC,0.00,VWS V14.01,2013-07-10 03:22:00,
2013-07-09 23:23:00,80.5,73.0,29.93,South,179,0.0,1.0,78,0.00,,SKC,0.00,VWS V14.01,2013-07-10 03:23:00,
2013-07-09 23:24:00,80.3,73.2,29.93,SSW,198,0.0,3.0,79,0.00,,SKC,0.00,VWS V14.01,2013-07-10 03:24:00,
2013-07-09 23:25:00,80.1,73.0,29.93,South,184,0.0,3.0,79,0.00,,SKC,0.00,VWS V14.01,2013-07-10 03:25:00,
2013-07-09 23:26:00,80.1,73.0,29.93,South,184,0.0,3.0,79,0.00,,SKC,0.00,VWS V14.01,2013-07-10 03:26:00,
2013-07-09 23:27:00,80.1,73.4,29.93,South,184,0.0,3.0,80,0.00,,SKC,0.00,VWS V14.01,2013-07-10 03:27:00,
2013-07-09 23:28:00,80.3,73.2,29.93,SSW,207,0.0,3.0,79,0.00,,SKC,0.00,VWS V14.01,2013-07-10 03:28:00,
2013-07-09 23:29:00,80.1,73.4,29.93,South,184,0.0,3.0,80,0.00,,SKC,0.00,VWS V14.01,2013-07-10 03:29:00,
2013-07-09 23:30:00,80.1,73.4,29.93,South,184,0.0,0.0,80,0.00,,SKC,0.00,VWS V14.01,2013-07-10 03:30:00,
2013-07-09 23:31:00,80.1,73.4,29.93,South,184,0.0,0.0,80,0.00,,SKC,0.00,VWS V14.01,2013-07-10 03:31:00,
2013-07-09 23:32:00,80.1,73.4,29.93,South,184,0.0,0.0,80,0.00,,SKC,0.00,VWS V14.01,2013-07-10 03:32:00,
2013-07-09 23:33:00,80.3,73.2,29.93,SSW,198,0.0,3.0,79,0.00,,SKC,0.00,VWS V14.01,2013-07-10 03:33:00,
2013-07-09 23:36:00,80.1,73.8,29.93,South,184,0.0,1.0,81,0.00,,SKC,0.00,VWS V14.01,2013-07-10 03:36:00,
2013-07-09 23:37:00,80.1,73.8,29.93,South,184,0.0,1.0,81,0.00,,SKC,0.00,VWS V14.01,2013-07-10 03:37:00,
2013-07-09 23:38:00,80.1,73.8,29.93,South,184,0.0,1.0,81,0.00,,SKC,0.00,VWS V14.01,2013-07-10 03:38:00,
2013-07-09 23:39:00,80.1,73.4,29.93,South,184,0.0,3.0,80,0.00,,SKC,0.00,VWS V14.01,2013-07-10 03:39:00,
2013-07-09 23:40:00,80.1,73.8,29.93,South,188,0.0,2.0,81,0.00,,SKC,0.00,VWS V14.01,2013-07-10 03:40:00,
2013-07-09 23:41:00,80.3,73.9,29.93,SSE,167,0.0,2.0,81,0.00,,SKC,0.00,VWS V14.01,2013-07-10 03:41:00,
2013-07-09 23:42:00,80.3,73.9,29.93,SE,134,0.0,3.0,81,0.00,,SKC,0.00,VWS V14.01,2013-07-10 03:42:00,
2013-07-09 23:43:00,80.3,73.9,29.93,SE,134,0.0,3.0,81,0.00,,SKC,0.00,VWS V14.01,2013-07-10 03:43:00,
2013-07-09 23:44:00,80.1,73.4,29.93,South,184,0.0,1.0,80,0.00,,SKC,0.00,VWS V14.01,2013-07-10 03:44:00,
2013-07-09 23:45:00,80.3,73.9,29.93,SE,134,0.0,3.0,81,0.00,,SKC,0.00,VWS V14.01,2013-07-10 03:45:00,
2013-07-09 23:46:00,80.3,73.9,29.93,SSE,152,0.0,3.0,81,0.00,,SKC,0.00,VWS V14.01,2013-07-10 03:46:00,
2013-07-09 23:47:00,80.3,73.9,29.93,SSE,152,0.0,3.0,81,0.00,,SKC,0.00,VWS V14.01,2013-07-10 03:47:00,
2013-07-09 23:48:00,80.3,73.9,29.93,SSE,152,0.0,3.0,81,0.00,,SKC,0.00,VWS V14.01,2013-07-10 03:48:00,
2013-07-09 23:49:00,80.1,73.8,29.93,South,188,0.0,2.0,81,0.00,,SKC,0.00,VWS V14.01,2013-07-10 03:49:00,
2013-07-09 23:50:00,80.3,73.9,29.93,SSE,152,0.0,3.0,81,0.00,,SKC,0.00,VWS V14.01,2013-07-10 03:50:00,
2013-07-09 23:51:00,80.3,73.9,29.93,SSE,152,0.0,3.0,81,0.00,,SKC,0.00,VWS V14.01,2013-07-10 03:51:00,
2013-07-09 23:52:00,80.1,73.8,29.93,SSE,152,0.0,3.0,81,0.00,,SKC,0.00,VWS V14.01,2013-07-10 03:52:00,
2013-07-09 23:53:00,80.1,73.8,29.93,SSE,152,0.0,3.0,81,0.00,,SKC,0.00,VWS V14.01,2013-07-10 03:53:00,
2013-07-09 23:54:00,80.3,73.9,29.93,SE,134,0.0,3.0,81,0.00,,SKC,0.00,VWS V14.01,2013-07-10 03:54:00,
2013-07-09 23:55:00,80.1,73.8,29.93,South,191,0.0,3.0,81,0.00,,SKC,0.00,VWS V14.01,2013-07-10 03:55:00,
2013-07-09 23:56:00,80.1,73.8,29.93,South,191,0.0,3.0,81,0.00,,SKC,0.00,VWS V14.01,2013-07-10 03:56:00,
2013-07-09 23:57:00,80.1,74.1,29.93,South,191,0.0,3.0,82,0.00,,SKC,0.00,VWS V14.01,2013-07-10 03:57:00,
2013-07-09 23:58:00,80.1,74.1,29.93,South,191,0.0,3.0,82,0.00,,SKC,0.00,VWS V14.01,2013-07-10 03:58:00,
2013-07-09 23:59:00,80.3,73.9,29.93,SSE,152,0.0,3.0,81,0.00,,SKC,0.00,VWS V14.01,2013-07-10 03:59:00,